Time,TemperatureF,DewpointF,PressureIn,WindDirection,WindDirectionDegrees,WindSpeedMPH,WindSpeedGustMPH,Humidity,HourlyPrecipIn,Conditions,Clouds,dailyrainin,SoftwareType,DateUTC
2013-08-20 00:02:00,74.3,70.2,30.01,NE,35,0.0,0.0,87,0.00,,---,0.00,VWS V14.01,2013-08-20 05:02:00,
2013-08-20 00:03:00,74.2,70.1,30.01,NE,35,0.0,0.0,87,0.00,,---,0.00,VWS V14.01,2013-08-20 05:03:00,
2013-08-20 00:07:00,74.0,69.9,30.01,NE,35,0.0,0.0,87,0.00,,---,0.00,VWS V14.01,2013-08-20 05:07:00,
2013-08-20 00:08:00,74.0,69.9,30.01,NE,36,0.0,0.0,87,0.00,,---,0.00,VWS V14.01,2013-08-20 05:08:00,
2013-08-20 00:12:00,73.8,70.0,30.01,NE,35,0.0,0.0,88,0.00,,---,0.00,VWS V14.01,2013-08-20 05:12:00,
2013-08-20 00:13:00,73.8,70.0,30.01,NE,35,0.0,0.0,88,0.00,,---,0.00,VWS V14.01,2013-08-20 05:13:00,
2013-08-20 00:17:00,73.6,69.8,30.01,West,264,0.0,0.0,88,0.00,,---,0.00,VWS V14.01,2013-08-20 05:17:00,
2013-08-20 00:18:00,73.6,69.8,30.01,West,265,0.0,0.0,88,0.00,,---,0.00,VWS V14.01,2013-08-20 05:18:00,
2013-08-20 00:22:00,73.4,70.0,30.01,West,264,0.0,0.0,89,0.00,,---,0.00,VWS V14.01,2013-08-20 05:22:00,
2013-08-20 00:23:00,73.4,70.0,30.01,West,265,0.0,0.0,89,0.00,,---,0.00,VWS V14.01,2013-08-20 05:23:00,
2013-08-20 00:24:00,73.4,70.0,30.01,West,264,0.0,0.0,89,0.00,,---,0.00,VWS V14.01,2013-08-20 05:24:00,
2013-08-20 00:27:00,73.3,69.9,30.01,West,264,0.0,0.0,89,0.00,,---,0.00,VWS V14.01,2013-08-20 05:27:00,
2013-08-20 00:28:00,73.3,69.9,30.01,West,265,0.0,0.0,89,0.00,,---,0.00,VWS V14.01,2013-08-20 05:28:00,
2013-08-20 00:29:00,73.2,69.8,30.01,West,264,0.0,0.0,89,0.00,,---,0.00,VWS V14.01,2013-08-20 05:29:00,
2013-08-20 00:32:00,73.2,69.8,30.01,West,264,0.0,0.0,89,0.00,,---,0.00,VWS V14.01,2013-08-20 05:32:00,
2013-08-20 00:33:00,73.1,69.7,30.01,West,264,0.0,0.0,89,0.00,,---,0.00,VWS V14.01,2013-08-20 05:33:00,
2013-08-20 00:34:00,73.1,69.7,30.01,West,264,0.0,0.0,89,0.00,,---,0.00,VWS V14.01,2013-08-20 05:34:00,
2013-08-20 00:38:00,73.1,70.0,30.01,West,265,0.0,0.0,90,0.00,,---,0.00,VWS V14.01,2013-08-20 05:38:00,
2013-08-20 00:39:00,73.1,70.0,30.01,West,265,0.0,0.0,90,0.00,,---,0.00,VWS V14.01,2013-08-20 05:39:00,
2013-08-20 00:43:00,72.9,69.8,30.01,West,264,0.0,0.0,90,0.00,,---,0.00,VWS V14.01,2013-08-20 05:43:00,
2013-08-20 00:44:00,72.9,69.8,30.01,West,265,0.0,0.0,90,0.00,,---,0.00,VWS V14.01,2013-08-20 05:44:00,
2013-08-20 00:48:00,72.8,69.7,30.01,West,265,0.0,0.0,90,0.00,,---,0.00,VWS V14.01,2013-08-20 05:48:00,
2013-08-20 00:49:00,72.7,69.6,30.00,West,264,0.0,0.0,90,0.00,,---,0.00,VWS V14.01,2013-08-20 05:49:00,
2013-08-20 00:50:00,72.7,69.6,30.01,West,265,0.0,0.0,90,0.00,,---,0.00,VWS V14.01,2013-08-20 05:50:00,
2013-08-20 00:53:00,72.6,69.5,30.01,West,265,0.0,0.0,90,0.00,,---,0.00,VWS V14.01,2013-08-20 05:53:00,
2013-08-20 00:54:00,72.6,69.5,30.00,West,264,0.0,0.0,90,0.00,,---,0.00,VWS V14.01,2013-08-20 05:54:00,
2013-08-20 00:55:00,72.6,69.5,30.00,West,264,0.0,0.0,90,0.00,,---,0.00,VWS V14.01,2013-08-20 05:55:00,
2013-08-20 00:58:00,72.5,69.7,30.00,West,265,0.0,0.0,91,0.00,,---,0.00,VWS V14.01,2013-08-20 05:58:00,
2013-08-20 00:59:00,72.5,69.7,30.00,West,265,0.0,0.0,91,0.00,,---,0.00,VWS V14.01,2013-08-20 05:59:00,
2013-08-20 01:00:00,72.5,69.7,30.00,West,264,0.0,0.0,91,0.00,,---,0.00,VWS V14.01,2013-08-20 06:00:00,
2013-08-20 01:03:00,72.4,69.6,30.00,West,264,0.0,0.0,91,0.00,,---,0.00,VWS V14.01,2013-08-20 06:03:00,
2013-08-20 01:04:00,72.4,69.6,30.00,West,264,0.0,0.0,91,0.00,,---,0.00,VWS V14.01,2013-08-20 06:04:00,
2013-08-20 01:05:00,72.4,69.6,30.01,West,264,0.0,0.0,91,0.00,,---,0.00,VWS V14.01,2013-08-20 06:05:00,
2013-08-20 01:06:00,72.4,69.6,30.01,West,264,0.0,0.0,91,0.00,,---,0.00,VWS V14.01,2013-08-20 06:06:00,
2013-08-20 01:08:00,72.4,69.6,30.00,West,264,0.0,0.0,91,0.00,,---,0.00,VWS V14.01,2013-08-20 06:08:00,
2013-08-20 01:09:00,72.3,69.5,30.00,West,264,0.0,0.0,91,0.00,,---,0.00,VWS V14.01,2013-08-20 06:09:00,
2013-08-20 01:10:00,72.3,69.5,30.00,West,264,0.0,0.0,91,0.00,,---,0.00,VWS V14.01,2013-08-20 06:10:00,
2013-08-20 01:11:00,72.3,69.5,30.00,West,264,0.0,0.0,91,0.00,,---,0.00,VWS V14.01,2013-08-20 06:11:00,
2013-08-20 01:13:00,72.3,69.5,30.00,West,264,0.0,0.0,91,0.00,,---,0.00,VWS V14.01,2013-08-20 06:13:00,
2013-08-20 01:15:00,72.2,69.8,30.00,West,264,0.0,0.0,92,0.00,,---,0.00,VWS V14.01,2013-08-20 06:15:00,
2013-08-20 01:16:00,72.2,69.8,30.00,West,264,0.0,0.0,92,0.00,,---,0.00,VWS V14.01,2013-08-20 06:16:00,
2013-08-20 01:19:00,72.2,69.8,30.00,West,264,0.0,0.0,92,0.00,,---,0.00,VWS V14.01,2013-08-20 06:19:00,
2013-08-20 01:20:00,72.1,69.7,30.00,West,264,0.0,0.0,92,0.00,,---,0.00,VWS V14.01,2013-08-20 06:20:00,
2013-08-20 01:21:00,72.2,69.8,30.00,West,265,0.0,0.0,92,0.00,,---,0.00,VWS V14.01,2013-08-20 06:21:00,
2013-08-20 01:24:00,72.1,69.7,30.00,West,264,0.0,0.0,92,0.00,,---,0.00,VWS V14.01,2013-08-20 06:24:00,
2013-08-20 01:25:00,72.1,69.7,30.00,West,264,0.0,0.0,92,0.00,,---,0.00,VWS V14.01,2013-08-20 06:25:00,
2013-08-20 01:26:00,72.1,69.7,30.00,West,265,0.0,0.0,92,0.00,,---,0.00,VWS V14.01,2013-08-20 06:26:00,
2013-08-20 01:29:00,72.0,69.6,30.00,West,265,0.0,0.0,92,0.00,,---,0.00,VWS V14.01,2013-08-20 06:29:00,
2013-08-20 01:30:00,72.0,69.6,30.00,West,265,0.0,0.0,92,0.00,,---,0.00,VWS V14.01,2013-08-20 06:30:00,
2013-08-20 01:31:00,72.0,69.6,30.00,West,264,0.0,0.0,92,0.00,,---,0.00,VWS V14.01,2013-08-20 06:31:00,
2013-08-20 01:34:00,71.9,69.4,30.00,West,264,0.0,0.0,92,0.00,,---,0.00,VWS V14.01,2013-08-20 06:34:00,
2013-08-20 01:36:00,71.9,69.4,30.00,West,264,0.0,0.0,92,0.00,,---,0.00,VWS V14.01,2013-08-20 06:36:00,
2013-08-20 01:40:00,71.8,69.3,30.00,West,264,0.0,0.0,92,0.00,,---,0.00,VWS V14.01,2013-08-20 06:40:00,
2013-08-20 01:41:00,71.8,69.3,30.00,West,264,0.0,0.0,92,0.00,,---,0.00,VWS V14.01,2013-08-20 06:41:00,
2013-08-20 01:45:00,71.8,69.3,30.00,West,264,0.0,0.0,92,0.00,,---,0.00,VWS V14.01,2013-08-20 06:45:00,
2013-08-20 01:46:00,71.8,69.3,30.00,West,264,0.0,0.0,92,0.00,,---,0.00,VWS V14.01,2013-08-20 06:46:00,
2013-08-20 01:47:00,71.7,69.6,30.00,West,265,0.0,0.0,93,0.00,,---,0.00,VWS V14.01,2013-08-20 06:47:00,
2013-08-20 01:50:00,71.7,69.6,30.00,West,264,0.0,0.0,93,0.00,,---,0.00,VWS V14.01,2013-08-20 06:50:00,
2013-08-20 01:51:00,71.6,69.5,30.00,West,264,0.0,0.0,93,0.00,,---,0.00,VWS V14.01,2013-08-20 06:51:00,
2013-08-20 01:52:00,71.6,69.5,30.00,West,264,0.0,0.0,93,0.00,,---,0.00,VWS V14.01,2013-08-20 06:52:00,
2013-08-20 01:55:00,71.6,69.5,30.00,West,264,0.0,0.0,93,0.00,,---,0.00,VWS V14.01,2013-08-20 06:55:00,
2013-08-20 01:56:00,71.6,69.5,30.00,West,264,0.0,0.0,93,0.00,,---,0.00,VWS V14.01,2013-08-20 06:56:00,
2013-08-20 01:57:00,71.6,69.5,30.00,West,265,0.0,0.0,93,0.00,,---,0.00,VWS V14.01,2013-08-20 06:57:00,
2013-08-20 02:00:00,71.5,69.4,30.00,West,265,0.0,0.0,93,0.00,,---,0.00,VWS V14.01,2013-08-20 07:00:00,
2013-08-20 02:01:00,71.5,69.4,30.00,West,264,0.0,0.0,93,0.00,,---,0.00,VWS V14.01,2013-08-20 07:01:00,
2013-08-20 02:02:00,71.5,69.4,30.00,West,265,0.0,0.0,93,0.00,,---,0.00,VWS V14.01,2013-08-20 07:02:00,
2013-08-20 02:05:00,71.4,69.3,30.00,West,264,0.0,0.0,93,0.00,,---,0.00,VWS V14.01,2013-08-20 07:05:00,
2013-08-20 02:06:00,71.4,69.3,30.00,West,264,0.0,0.0,93,0.00,,---,0.00,VWS V14.01,2013-08-20 07:06:00,
2013-08-20 02:07:00,71.4,69.3,30.00,West,264,0.0,0.0,93,0.00,,---,0.00,VWS V14.01,2013-08-20 07:07:00,
2013-08-20 02:10:00,71.3,69.2,30.00,West,265,0.0,0.0,93,0.00,,---,0.00,VWS V14.01,2013-08-20 07:10:00,
2013-08-20 02:11:00,71.2,69.1,30.00,West,264,0.0,0.0,93,0.00,,---,0.00,VWS V14.01,2013-08-20 07:11:00,
2013-08-20 02:12:00,71.2,69.1,30.00,West,264,0.0,0.0,93,0.00,,---,0.00,VWS V14.01,2013-08-20 07:12:00,
2013-08-20 02:13:00,71.2,69.1,30.00,West,264,0.0,0.0,93,0.00,,---,0.00,VWS V14.01,2013-08-20 07:13:00,
2013-08-20 02:15:00,71.2,69.4,30.00,West,264,0.0,0.0,94,0.00,,---,0.00,VWS V14.01,2013-08-20 07:15:00,
2013-08-20 02:17:00,71.2,69.4,30.00,West,265,0.0,0.0,94,0.00,,---,0.00,VWS V14.01,2013-08-20 07:17:00,
2013-08-20 02:18:00,71.2,69.4,30.00,West,264,0.0,0.0,94,0.00,,---,0.00,VWS V14.01,2013-08-20 07:18:00,
2013-08-20 02:21:00,71.2,69.4,30.00,West,264,0.0,0.0,94,0.00,,---,0.00,VWS V14.01,2013-08-20 07:21:00,
2013-08-20 02:22:00,71.2,69.4,30.00,West,265,0.0,0.0,94,0.00,,---,0.00,VWS V14.01,2013-08-20 07:22:00,
2013-08-20 02:23:00,71.2,69.4,30.00,West,264,0.0,0.0,94,0.00,,---,0.00,VWS V14.01,2013-08-20 07:23:00,
2013-08-20 02:26:00,71.1,69.3,30.00,West,264,0.0,0.0,94,0.00,,---,0.00,VWS V14.01,2013-08-20 07:26:00,
2013-08-20 02:27:00,71.1,69.3,30.00,West,264,0.0,0.0,94,0.00,,---,0.00,VWS V14.01,2013-08-20 07:27:00,
2013-08-20 02:28:00,71.1,69.3,30.00,West,264,0.0,0.0,94,0.00,,---,0.00,VWS V14.01,2013-08-20 07:28:00,
2013-08-20 02:31:00,71.0,69.2,30.00,West,265,0.0,0.0,94,0.00,,---,0.00,VWS V14.01,2013-08-20 07:31:00,
2013-08-20 02:32:00,71.0,69.2,30.00,West,264,0.0,0.0,94,0.00,,---,0.00,VWS V14.01,2013-08-20 07:32:00,
2013-08-20 02:33:00,71.0,69.2,30.00,West,264,0.0,0.0,94,0.00,,---,0.00,VWS V14.01,2013-08-20 07:33:00,
2013-08-20 02:34:00,71.0,69.2,30.00,West,264,0.0,0.0,94,0.00,,---,0.00,VWS V14.01,2013-08-20 07:34:00,
2013-08-20 02:36:00,70.9,69.1,30.00,West,265,0.0,0.0,94,0.00,,---,0.00,VWS V14.01,2013-08-20 07:36:00,
2013-08-20 02:37:00,70.9,69.1,30.00,West,264,0.0,0.0,94,0.00,,---,0.00,VWS V14.01,2013-08-20 07:37:00,
2013-08-20 02:38:00,70.9,69.1,30.00,West,265,0.0,0.0,94,0.00,,---,0.00,VWS V14.01,2013-08-20 07:38:00,
2013-08-20 02:39:00,70.9,69.1,30.00,West,265,0.0,0.0,94,0.00,,---,0.00,VWS V14.01,2013-08-20 07:39:00,
2013-08-20 02:41:00,70.9,69.1,30.00,West,264,0.0,0.0,94,0.00,,---,0.00,VWS V14.01,2013-08-20 07:41:00,
2013-08-20 02:42:00,70.8,69.0,30.00,West,265,0.0,0.0,94,0.00,,---,0.00,VWS V14.01,2013-08-20 07:42:00,
2013-08-20 02:43:00,70.8,69.0,30.00,West,264,0.0,0.0,94,0.00,,---,0.00,VWS V14.01,2013-08-20 07:43:00,
2013-08-20 02:44:00,70.8,69.0,30.00,West,264,0.0,0.0,94,0.00,,---,0.00,VWS V14.01,2013-08-20 07:44:00,
2013-08-20 02:46:00,70.7,68.9,30.00,West,264,0.0,0.0,94,0.00,,---,0.00,VWS V14.01,2013-08-20 07:46:00,
2013-08-20 02:48:00,70.7,68.9,30.00,West,264,0.0,0.0,94,0.00,,---,0.00,VWS V14.01,2013-08-20 07:48:00,
2013-08-20 02:49:00,70.7,68.9,30.00,West,264,0.0,0.0,94,0.00,,---,0.00,VWS V14.01,2013-08-20 07:49:00,
2013-08-20 02:52:00,70.6,68.8,30.00,West,264,0.0,0.0,94,0.00,,---,0.00,VWS V14.01,2013-08-20 07:52:00,
2013-08-20 02:53:00,70.6,69.1,30.00,West,264,0.0,0.0,95,0.00,,---,0.00,VWS V14.01,2013-08-20 07:53:00,
2013-08-20 02:54:00,70.6,69.1,30.00,West,264,0.0,0.0,95,0.00,,---,0.00,VWS V14.01,2013-08-20 07:54:00,
2013-08-20 02:57:00,70.6,69.1,30.00,West,265,0.0,0.0,95,0.00,,---,0.00,VWS V14.01,2013-08-20 07:57:00,
2013-08-20 02:58:00,70.6,69.1,30.00,West,264,0.0,0.0,95,0.00,,---,0.00,VWS V14.01,2013-08-20 07:58:00,
2013-08-20 02:59:00,70.6,69.1,30.00,West,264,0.0,0.0,95,0.00,,---,0.00,VWS V14.01,2013-08-20 07:59:00,
2013-08-20 03:00:00,70.6,69.1,30.00,West,265,0.0,0.0,95,0.00,,---,0.00,VWS V14.01,2013-08-20 08:00:00,
2013-08-20 03:02:00,70.6,69.1,30.00,West,264,0.0,0.0,95,0.00,,---,0.00,VWS V14.01,2013-08-20 08:02:00,
2013-08-20 03:03:00,70.5,69.0,30.00,West,264,0.0,0.0,95,0.00,,---,0.00,VWS V14.01,2013-08-20 08:03:00,
2013-08-20 03:04:00,70.5,69.0,30.00,West,265,0.0,0.0,95,0.00,,---,0.00,VWS V14.01,2013-08-20 08:04:00,
2013-08-20 03:05:00,70.5,69.0,30.00,West,264,0.0,0.0,95,0.00,,---,0.00,VWS V14.01,2013-08-20 08:05:00,
2013-08-20 03:07:00,70.5,69.0,30.00,West,264,0.0,0.0,95,0.00,,---,0.00,VWS V14.01,2013-08-20 08:07:00,
2013-08-20 03:08:00,70.5,69.0,30.00,West,265,0.0,0.0,95,0.00,,---,0.00,VWS V14.01,2013-08-20 08:08:00,
2013-08-20 03:09:00,70.5,69.0,30.00,West,264,0.0,0.0,95,0.00,,---,0.00,VWS V14.01,2013-08-20 08:09:00,
2013-08-20 03:10:00,70.5,69.0,30.00,West,264,0.0,0.0,95,0.00,,---,0.00,VWS V14.01,2013-08-20 08:10:00,
2013-08-20 03:12:00,70.5,69.0,30.00,West,264,0.0,0.0,95,0.00,,---,0.00,VWS V14.01,2013-08-20 08:12:00,
2013-08-20 03:13:00,70.4,68.9,30.00,West,264,0.0,0.0,95,0.00,,---,0.00,VWS V14.01,2013-08-20 08:13:00,
2013-08-20 03:14:00,70.4,68.9,30.00,West,265,0.0,0.0,95,0.00,,---,0.00,VWS V14.01,2013-08-20 08:14:00,
2013-08-20 03:15:00,70.4,68.9,30.00,West,264,0.0,0.0,95,0.00,,---,0.00,VWS V14.01,2013-08-20 08:15:00,
2013-08-20 03:17:00,70.4,68.9,30.00,West,264,0.0,0.0,95,0.00,,---,0.00,VWS V14.01,2013-08-20 08:17:00,
2013-08-20 03:18:00,70.3,68.8,30.00,West,265,0.0,0.0,95,0.00,,---,0.00,VWS V14.01,2013-08-20 08:18:00,
2013-08-20 03:19:00,70.3,68.8,30.00,West,264,0.0,0.0,95,0.00,,---,0.00,VWS V14.01,2013-08-20 08:19:00,
2013-08-20 03:20:00,70.4,68.9,30.00,West,264,0.0,0.0,95,0.00,,---,0.00,VWS V14.01,2013-08-20 08:20:00,
2013-08-20 03:22:00,70.3,68.8,30.00,West,264,0.0,0.0,95,0.00,,---,0.00,VWS V14.01,2013-08-20 08:22:00,
2013-08-20 03:23:00,70.3,68.8,30.00,West,265,0.0,0.0,95,0.00,,---,0.00,VWS V14.01,2013-08-20 08:23:00,
2013-08-20 03:24:00,70.3,68.8,30.00,West,264,0.0,0.0,95,0.00,,---,0.00,VWS V14.01,2013-08-20 08:24:00,
2013-08-20 03:25:00,70.3,68.8,30.00,West,265,0.0,0.0,95,0.00,,---,0.00,VWS V14.01,2013-08-20 08:25:00,
2013-08-20 03:27:00,70.3,68.8,30.00,West,264,0.0,0.0,95,0.00,,---,0.00,VWS V14.01,2013-08-20 08:27:00,
2013-08-20 03:29:00,70.3,68.8,30.00,West,265,0.0,0.0,95,0.00,,---,0.00,VWS V14.01,2013-08-20 08:29:00,
2013-08-20 03:30:00,70.3,68.8,30.00,West,264,0.0,0.0,95,0.00,,---,0.00,VWS V14.01,2013-08-20 08:30:00,
2013-08-20 03:31:00,70.3,68.8,30.00,West,265,0.0,0.0,95,0.00,,---,0.00,VWS V14.01,2013-08-20 08:31:00,
2013-08-20 03:33:00,70.3,68.8,30.00,West,264,0.0,0.0,95,0.00,,---,0.00,VWS V14.01,2013-08-20 08:33:00,
2013-08-20 03:34:00,70.3,69.1,30.00,West,264,0.0,0.0,96,0.00,,---,0.00,VWS V14.01,2013-08-20 08:34:00,
2013-08-20 03:35:00,70.2,69.0,30.00,West,265,0.0,0.0,96,0.00,,---,0.00,VWS V14.01,2013-08-20 08:35:00,
2013-08-20 03:36:00,70.2,69.0,30.00,West,264,0.0,0.0,96,0.00,,---,0.00,VWS V14.01,2013-08-20 08:36:00,
2013-08-20 03:39:00,70.2,69.0,30.00,West,264,0.0,0.0,96,0.00,,---,0.00,VWS V14.01,2013-08-20 08:39:00,
2013-08-20 03:40:00,70.2,69.0,30.00,West,264,0.0,0.0,96,0.00,,---,0.00,VWS V14.01,2013-08-20 08:40:00,
2013-08-20 03:41:00,70.1,68.9,30.00,West,265,0.0,0.0,96,0.00,,---,0.00,VWS V14.01,2013-08-20 08:41:00,
2013-08-20 03:44:00,70.1,68.9,30.00,West,264,0.0,0.0,96,0.00,,---,0.00,VWS V14.01,2013-08-20 08:44:00,
2013-08-20 03:45:00,70.1,68.9,30.00,West,265,0.0,0.0,96,0.00,,---,0.00,VWS V14.01,2013-08-20 08:45:00,
2013-08-20 03:46:00,70.1,68.9,30.00,West,265,0.0,0.0,96,0.00,,---,0.00,VWS V14.01,2013-08-20 08:46:00,
2013-08-20 03:49:00,70.1,68.9,30.00,West,264,0.0,0.0,96,0.00,,---,0.00,VWS V14.01,2013-08-20 08:49:00,
2013-08-20 03:50:00,70.1,68.9,30.00,West,264,0.0,0.0,96,0.00,,---,0.00,VWS V14.01,2013-08-20 08:50:00,
2013-08-20 03:51:00,70.1,68.9,30.00,West,264,0.0,0.0,96,0.00,,---,0.00,VWS V14.01,2013-08-20 08:51:00,
2013-08-20 03:54:00,70.1,68.9,30.00,West,265,0.0,0.0,96,0.00,,---,0.00,VWS V14.01,2013-08-20 08:54:00,
2013-08-20 03:55:00,70.0,68.8,30.00,West,265,0.0,0.0,96,0.00,,---,0.00,VWS V14.01,2013-08-20 08:55:00,
2013-08-20 03:56:00,70.0,68.8,30.00,West,265,0.0,0.0,96,0.00,,---,0.00,VWS V14.01,2013-08-20 08:56:00,
2013-08-20 03:57:00,70.0,68.8,30.00,West,264,0.0,0.0,96,0.00,,---,0.00,VWS V14.01,2013-08-20 08:57:00,
2013-08-20 03:59:00,70.0,68.8,30.00,West,264,0.0,0.0,96,0.00,,---,0.00,VWS V14.01,2013-08-20 08:59:00,
2013-08-20 04:00:00,69.9,68.7,30.00,West,264,0.0,0.0,96,0.00,,---,0.00,VWS V14.01,2013-08-20 09:00:00,
2013-08-20 04:01:00,69.9,68.7,30.00,West,265,0.0,0.0,96,0.00,,---,0.00,VWS V14.01,2013-08-20 09:01:00,
2013-08-20 04:02:00,69.9,68.7,30.00,West,265,0.0,0.0,96,0.00,,---,0.00,VWS V14.01,2013-08-20 09:02:00,
2013-08-20 04:05:00,69.8,68.6,30.00,West,264,0.0,0.0,96,0.00,,---,0.00,VWS V14.01,2013-08-20 09:05:00,
2013-08-20 04:06:00,69.8,68.6,30.00,West,265,0.0,0.0,96,0.00,,---,0.00,VWS V14.01,2013-08-20 09:06:00,
2013-08-20 04:07:00,69.8,68.6,30.00,West,265,0.0,0.0,96,0.00,,---,0.00,VWS V14.01,2013-08-20 09:07:00,
2013-08-20 04:11:00,69.8,68.6,30.00,West,265,0.0,0.0,96,0.00,,---,0.00,VWS V14.01,2013-08-20 09:11:00,
2013-08-20 04:12:00,69.8,68.6,30.00,West,264,0.0,0.0,96,0.00,,---,0.00,VWS V14.01,2013-08-20 09:12:00,
2013-08-20 04:16:00,69.8,68.6,30.00,West,264,0.0,0.0,96,0.00,,---,0.00,VWS V14.01,2013-08-20 09:16:00,
2013-08-20 04:17:00,69.8,68.6,30.00,West,264,0.0,0.0,96,0.00,,---,0.00,VWS V14.01,2013-08-20 09:17:00,
2013-08-20 04:21:00,69.8,68.6,30.00,West,264,0.0,0.0,96,0.00,,---,0.00,VWS V14.01,2013-08-20 09:21:00,
2013-08-20 04:22:00,69.8,68.6,30.00,West,264,0.0,0.0,96,0.00,,---,0.00,VWS V14.01,2013-08-20 09:22:00,
2013-08-20 04:26:00,69.8,68.6,30.00,West,265,0.0,0.0,96,0.00,,---,0.00,VWS V14.01,2013-08-20 09:26:00,
2013-08-20 04:27:00,69.8,68.6,30.00,West,264,0.0,0.0,96,0.00,,---,0.00,VWS V14.01,2013-08-20 09:27:00,
2013-08-20 04:28:00,69.7,68.5,30.00,West,265,0.0,0.0,96,0.00,,---,0.00,VWS V14.01,2013-08-20 09:28:00,
2013-08-20 04:31:00,69.7,68.5,30.00,West,264,0.0,0.0,96,0.00,,---,0.00,VWS V14.01,2013-08-20 09:31:00,
2013-08-20 04:32:00,69.7,68.8,30.00,West,264,0.0,0.0,97,0.00,,---,0.00,VWS V14.01,2013-08-20 09:32:00,
2013-08-20 04:33:00,69.7,68.8,30.00,West,265,0.0,0.0,97,0.00,,---,0.00,VWS V14.01,2013-08-20 09:33:00,
2013-08-20 04:36:00,69.7,68.8,30.00,West,264,0.0,0.0,97,0.00,,---,0.00,VWS V14.01,2013-08-20 09:36:00,
2013-08-20 04:38:00,69.7,68.8,30.00,West,264,0.0,0.0,97,0.00,,---,0.00,VWS V14.01,2013-08-20 09:38:00,
2013-08-20 04:41:00,69.6,68.7,30.00,West,264,0.0,0.0,97,0.00,,---,0.00,VWS V14.01,2013-08-20 09:41:00,
2013-08-20 04:43:00,69.6,68.7,30.00,West,265,0.0,0.0,97,0.00,,---,0.00,VWS V14.01,2013-08-20 09:43:00,
2013-08-20 04:46:00,69.6,68.7,30.00,West,264,0.0,0.0,97,0.00,,---,0.00,VWS V14.01,2013-08-20 09:46:00,
2013-08-20 04:48:00,69.6,68.7,30.00,West,264,0.0,0.0,97,0.00,,---,0.00,VWS V14.01,2013-08-20 09:48:00,
2013-08-20 04:51:00,69.7,68.8,30.00,West,265,0.0,0.0,97,0.00,,---,0.00,VWS V14.01,2013-08-20 09:51:00,
2013-08-20 04:52:00,69.7,68.8,30.00,West,264,0.0,0.0,97,0.00,,---,0.00,VWS V14.01,2013-08-20 09:52:00,
2013-08-20 04:53:00,69.7,68.8,30.00,West,264,0.0,0.0,97,0.00,,---,0.00,VWS V14.01,2013-08-20 09:53:00,
2013-08-20 04:56:00,69.6,68.7,30.00,West,264,0.0,0.0,97,0.00,,---,0.00,VWS V14.01,2013-08-20 09:56:00,
2013-08-20 04:57:00,69.6,68.7,30.00,West,265,0.0,0.0,97,0.00,,---,0.00,VWS V14.01,2013-08-20 09:57:00,
2013-08-20 04:58:00,69.6,68.7,30.00,West,265,0.0,0.0,97,0.00,,---,0.00,VWS V14.01,2013-08-20 09:58:00,
2013-08-20 05:01:00,69.6,68.7,30.00,West,265,0.0,0.0,97,0.00,,---,0.00,VWS V14.01,2013-08-20 10:01:00,
2013-08-20 05:02:00,69.6,68.7,30.00,West,264,0.0,0.0,97,0.00,,---,0.00,VWS V14.01,2013-08-20 10:02:00,
2013-08-20 05:03:00,69.6,68.7,30.00,West,265,0.0,0.0,97,0.00,,---,0.00,VWS V14.01,2013-08-20 10:03:00,
2013-08-20 05:07:00,69.6,68.7,30.00,West,265,0.0,0.0,97,0.00,,---,0.00,VWS V14.01,2013-08-20 10:07:00,
2013-08-20 05:08:00,69.6,68.7,30.00,West,264,0.0,0.0,97,0.00,,---,0.00,VWS V14.01,2013-08-20 10:08:00,
2013-08-20 05:12:00,69.5,68.6,30.00,West,265,0.0,0.0,97,0.00,,---,0.00,VWS V14.01,2013-08-20 10:12:00,
2013-08-20 05:13:00,69.5,68.6,30.00,West,264,0.0,0.0,97,0.00,,---,0.00,VWS V14.01,2013-08-20 10:13:00,
2013-08-20 05:17:00,69.4,68.5,30.00,West,265,0.0,0.0,97,0.00,,---,0.00,VWS V14.01,2013-08-20 10:17:00,
2013-08-20 05:18:00,69.4,68.5,30.00,West,264,0.0,0.0,97,0.00,,---,0.00,VWS V14.01,2013-08-20 10:18:00,
2013-08-20 05:19:00,69.3,68.4,30.00,West,265,0.0,0.0,97,0.00,,---,0.00,VWS V14.01,2013-08-20 10:19:00,
2013-08-20 05:22:00,69.2,68.3,30.00,West,264,0.0,0.0,97,0.00,,---,0.00,VWS V14.01,2013-08-20 10:22:00,
2013-08-20 05:23:00,69.2,68.3,30.00,West,265,0.0,0.0,97,0.00,,---,0.00,VWS V14.01,2013-08-20 10:23:00,
2013-08-20 05:24:00,69.2,68.3,30.00,West,265,0.0,0.0,97,0.00,,---,0.00,VWS V14.01,2013-08-20 10:24:00,
2013-08-20 05:27:00,69.1,68.2,30.00,West,265,0.0,0.0,97,0.00,,---,0.00,VWS V14.01,2013-08-20 10:27:00,
2013-08-20 05:28:00,69.1,68.2,30.00,West,265,0.0,0.0,97,0.00,,---,0.00,VWS V14.01,2013-08-20 10:28:00,
2013-08-20 05:29:00,69.2,68.3,30.00,West,265,0.0,0.0,97,0.00,,---,0.00,VWS V14.01,2013-08-20 10:29:00,
2013-08-20 05:32:00,69.2,68.3,30.01,West,264,0.0,0.0,97,0.00,,---,0.00,VWS V14.01,2013-08-20 10:32:00,
2013-08-20 05:33:00,69.2,68.3,30.01,West,265,0.0,0.0,97,0.00,,---,0.00,VWS V14.01,2013-08-20 10:33:00,
2013-08-20 05:34:00,69.2,68.3,30.01,West,265,0.0,0.0,97,0.00,,---,0.00,VWS V14.01,2013-08-20 10:34:00,
2013-08-20 05:37:00,69.2,68.3,30.01,West,264,0.0,0.0,97,0.00,,---,0.00,VWS V14.01,2013-08-20 10:37:00,
2013-08-20 05:39:00,69.2,68.3,30.01,West,264,0.0,0.0,97,0.00,,---,0.00,VWS V14.01,2013-08-20 10:39:00,
2013-08-20 05:40:00,69.2,68.3,30.01,West,264,0.0,0.0,97,0.00,,---,0.00,VWS V14.01,2013-08-20 10:40:00,
2013-08-20 05:42:00,69.2,68.3,30.01,West,264,0.0,0.0,97,0.00,,---,0.00,VWS V14.01,2013-08-20 10:42:00,
2013-08-20 05:44:00,69.1,68.2,30.01,West,264,0.0,0.0,97,0.00,,---,0.00,VWS V14.01,2013-08-20 10:44:00,
2013-08-20 05:45:00,69.1,68.2,30.01,West,265,0.0,0.0,97,0.00,,---,0.00,VWS V14.01,2013-08-20 10:45:00,
2013-08-20 05:47:00,69.1,68.2,30.01,West,265,0.0,0.0,97,0.00,,---,0.00,VWS V14.01,2013-08-20 10:47:00,
2013-08-20 05:49:00,69.0,68.1,30.01,West,265,0.0,0.0,97,0.00,,---,0.00,VWS V14.01,2013-08-20 10:49:00,
2013-08-20 05:50:00,69.0,68.1,30.01,West,264,0.0,0.0,97,0.00,,---,0.00,VWS V14.01,2013-08-20 10:50:00,
2013-08-20 05:52:00,69.0,68.1,30.01,West,265,0.0,0.0,97,0.00,,---,0.00,VWS V14.01,2013-08-20 10:52:00,
2013-08-20 05:54:00,69.0,68.1,30.01,West,264,0.0,0.0,97,0.00,,---,0.00,VWS V14.01,2013-08-20 10:54:00,
2013-08-20 05:55:00,69.0,68.1,30.01,West,265,0.0,0.0,97,0.00,,---,0.00,VWS V14.01,2013-08-20 10:55:00,
2013-08-20 05:57:00,68.9,68.0,30.01,West,264,0.0,0.0,97,0.00,,---,0.00,VWS V14.01,2013-08-20 10:57:00,
2013-08-20 05:59:00,68.9,68.0,30.01,West,265,0.0,0.0,97,0.00,,---,0.00,VWS V14.01,2013-08-20 10:59:00,
2013-08-20 06:00:00,68.9,68.0,30.01,West,265,0.0,0.0,97,0.00,,---,0.00,VWS V14.01,2013-08-20 11:00:00,
2013-08-20 06:02:00,68.9,68.0,30.02,West,265,0.0,0.0,97,0.00,,---,0.00,VWS V14.01,2013-08-20 11:02:00,
2013-08-20 06:05:00,68.9,68.0,30.02,West,264,0.0,0.0,97,0.00,,---,0.00,VWS V14.01,2013-08-20 11:05:00,
2013-08-20 06:06:00,68.9,68.0,30.02,West,264,0.0,0.0,97,0.00,,---,0.00,VWS V14.01,2013-08-20 11:06:00,
2013-08-20 06:08:00,68.9,68.0,30.02,West,264,0.0,0.0,97,0.00,,---,0.00,VWS V14.01,2013-08-20 11:08:00,
2013-08-20 06:10:00,68.9,68.0,30.02,West,264,0.0,0.0,97,0.00,,---,0.00,VWS V14.01,2013-08-20 11:10:00,
2013-08-20 06:11:00,68.8,67.9,30.02,West,265,0.0,0.0,97,0.00,,---,0.00,VWS V14.01,2013-08-20 11:11:00,
2013-08-20 06:13:00,68.8,67.9,30.02,West,264,0.0,0.0,97,0.00,,---,0.00,VWS V14.01,2013-08-20 11:13:00,
2013-08-20 06:15:00,68.8,67.9,30.02,West,264,0.0,0.0,97,0.00,,---,0.00,VWS V14.01,2013-08-20 11:15:00,
2013-08-20 06:16:00,68.8,67.9,30.02,West,264,0.0,0.0,97,0.00,,---,0.00,VWS V14.01,2013-08-20 11:16:00,
2013-08-20 06:18:00,68.9,68.3,30.02,West,264,0.0,0.0,98,0.00,,---,0.00,VWS V14.01,2013-08-20 11:18:00,
2013-08-20 06:20:00,69.0,68.4,30.02,West,265,0.0,0.0,98,0.00,,---,0.00,VWS V14.01,2013-08-20 11:20:00,
2013-08-20 06:21:00,69.0,68.4,30.02,West,264,0.0,0.0,98,0.00,,---,0.00,VWS V14.01,2013-08-20 11:21:00,
2013-08-20 06:23:00,69.0,68.4,30.02,West,264,0.0,0.0,98,0.00,,---,0.00,VWS V14.01,2013-08-20 11:23:00,
2013-08-20 06:25:00,69.0,68.4,30.02,West,264,0.0,0.0,98,0.00,,---,0.00,VWS V14.01,2013-08-20 11:25:00,
2013-08-20 06:26:00,69.0,68.4,30.03,West,264,0.0,0.0,98,0.00,,---,0.00,VWS V14.01,2013-08-20 11:26:00,
2013-08-20 06:28:00,69.0,68.4,30.03,West,265,0.0,0.0,98,0.00,,---,0.00,VWS V14.01,2013-08-20 11:28:00,
2013-08-20 06:30:00,69.0,68.4,30.02,West,264,0.0,0.0,98,0.00,,---,0.00,VWS V14.01,2013-08-20 11:30:00,
2013-08-20 06:31:00,69.0,68.4,30.03,West,265,0.0,0.0,98,0.00,,---,0.00,VWS V14.01,2013-08-20 11:31:00,
2013-08-20 06:32:00,69.0,68.4,30.03,West,264,0.0,0.0,98,0.00,,---,0.00,VWS V14.01,2013-08-20 11:32:00,
2013-08-20 06:33:00,69.0,68.4,30.03,West,264,0.0,0.0,98,0.00,,---,0.00,VWS V14.01,2013-08-20 11:33:00,
2013-08-20 06:35:00,69.0,68.4,30.03,West,264,0.0,0.0,98,0.00,,---,0.00,VWS V14.01,2013-08-20 11:35:00,
2013-08-20 06:37:00,68.9,68.3,30.03,West,264,0.0,0.0,98,0.00,,---,0.00,VWS V14.01,2013-08-20 11:37:00,
2013-08-20 06:39:00,68.9,68.3,30.03,West,264,0.0,0.0,98,0.00,,---,0.00,VWS V14.01,2013-08-20 11:39:00,
2013-08-20 06:40:00,68.9,68.3,30.03,West,265,0.0,0.0,98,0.00,,---,0.00,VWS V14.01,2013-08-20 11:40:00,
2013-08-20 06:41:00,68.9,68.3,30.03,West,264,0.0,0.0,98,0.00,,---,0.00,VWS V14.01,2013-08-20 11:41:00,
2013-08-20 06:42:00,69.0,68.4,30.03,West,264,0.0,0.0,98,0.00,,---,0.00,VWS V14.01,2013-08-20 11:42:00,
2013-08-20 06:44:00,69.0,68.4,30.03,West,265,0.0,0.0,98,0.00,,---,0.00,VWS V14.01,2013-08-20 11:44:00,
2013-08-20 06:45:00,69.0,68.4,30.03,West,264,0.0,0.0,98,0.00,,---,0.00,VWS V14.01,2013-08-20 11:45:00,
2013-08-20 06:46:00,69.0,68.4,30.03,West,264,0.0,0.0,98,0.00,,---,0.00,VWS V14.01,2013-08-20 11:46:00,
2013-08-20 06:47:00,69.0,68.4,30.03,West,265,0.0,0.0,98,0.00,,---,0.00,VWS V14.01,2013-08-20 11:47:00,
2013-08-20 06:49:00,69.0,68.4,30.03,West,264,0.0,0.0,98,0.00,,---,0.00,VWS V14.01,2013-08-20 11:49:00,
2013-08-20 06:50:00,69.0,68.4,30.03,West,265,0.0,0.0,98,0.00,,---,0.00,VWS V14.01,2013-08-20 11:50:00,
2013-08-20 06:51:00,69.0,68.4,30.03,West,264,0.0,0.0,98,0.00,,---,0.00,VWS V14.01,2013-08-20 11:51:00,
2013-08-20 06:52:00,69.0,68.4,30.03,West,264,0.0,0.0,98,0.00,,---,0.00,VWS V14.01,2013-08-20 11:52:00,
2013-08-20 06:54:00,69.0,68.4,30.03,West,264,0.0,0.0,98,0.00,,---,0.00,VWS V14.01,2013-08-20 11:54:00,
2013-08-20 06:56:00,69.0,68.4,30.03,West,264,0.0,0.0,98,0.00,,---,0.00,VWS V14.01,2013-08-20 11:56:00,
2013-08-20 06:57:00,69.1,68.5,30.03,West,265,0.0,0.0,98,0.00,,---,0.00,VWS V14.01,2013-08-20 11:57:00,
2013-08-20 06:59:00,69.1,68.5,30.03,West,264,0.0,0.0,98,0.00,,---,0.00,VWS V14.01,2013-08-20 11:59:00,
2013-08-20 07:01:00,69.1,68.5,30.03,West,264,0.0,0.0,98,0.00,,---,0.00,VWS V14.01,2013-08-20 12:01:00,
2013-08-20 07:02:00,69.1,68.5,30.03,West,264,0.0,0.0,98,0.00,,---,0.00,VWS V14.01,2013-08-20 12:02:00,
2013-08-20 07:03:00,69.2,68.6,30.03,West,264,0.0,0.0,98,0.00,,---,0.00,VWS V14.01,2013-08-20 12:03:00,
2013-08-20 07:04:00,69.2,68.6,30.03,West,264,0.0,0.0,98,0.00,,---,0.00,VWS V14.01,2013-08-20 12:04:00,
2013-08-20 07:06:00,69.2,68.6,30.03,West,264,0.0,0.0,98,0.00,,---,0.00,VWS V14.01,2013-08-20 12:06:00,
2013-08-20 07:07:00,69.2,68.6,30.03,West,264,0.0,0.0,98,0.00,,---,0.00,VWS V14.01,2013-08-20 12:07:00,
2013-08-20 07:08:00,69.3,68.7,30.03,West,264,0.0,0.0,98,0.00,,---,0.00,VWS V14.01,2013-08-20 12:08:00,
2013-08-20 07:09:00,69.3,68.7,30.03,West,265,0.0,0.0,98,0.00,,---,0.00,VWS V14.01,2013-08-20 12:09:00,
2013-08-20 07:11:00,69.4,68.8,30.03,West,264,0.0,0.0,98,0.00,,---,0.00,VWS V14.01,2013-08-20 12:11:00,
2013-08-20 07:12:00,69.4,68.8,30.03,West,264,0.0,0.0,98,0.00,,---,0.00,VWS V14.01,2013-08-20 12:12:00,
2013-08-20 07:13:00,69.4,68.8,30.03,West,264,0.0,0.0,98,0.00,,---,0.00,VWS V14.01,2013-08-20 12:13:00,
2013-08-20 07:14:00,69.5,68.9,30.03,West,264,0.0,0.0,98,0.00,,---,0.00,VWS V14.01,2013-08-20 12:14:00,
2013-08-20 07:16:00,69.6,69.0,30.03,West,264,0.0,0.0,98,0.00,,---,0.00,VWS V14.01,2013-08-20 12:16:00,
2013-08-20 07:17:00,69.6,69.0,30.03,West,264,0.0,0.0,98,0.00,,---,0.00,VWS V14.01,2013-08-20 12:17:00,
2013-08-20 07:18:00,69.6,69.0,30.03,West,264,0.0,0.0,98,0.00,,---,0.00,VWS V14.01,2013-08-20 12:18:00,
2013-08-20 07:19:00,69.7,69.1,30.03,West,264,0.0,0.0,98,0.00,,---,0.00,VWS V14.01,2013-08-20 12:19:00,
2013-08-20 07:21:00,69.9,69.3,30.03,West,264,0.0,0.0,98,0.00,,---,0.00,VWS V14.01,2013-08-20 12:21:00,
2013-08-20 07:22:00,69.9,69.3,30.03,West,264,0.0,0.0,98,0.00,,---,0.00,VWS V14.01,2013-08-20 12:22:00,
2013-08-20 07:23:00,69.9,69.3,30.03,West,264,0.0,0.0,98,0.00,,---,0.00,VWS V14.01,2013-08-20 12:23:00,
2013-08-20 07:25:00,70.1,69.5,30.03,West,264,0.0,0.0,98,0.00,,---,0.00,VWS V14.01,2013-08-20 12:25:00,
2013-08-20 07:26:00,70.1,69.5,30.04,West,264,0.0,0.0,98,0.00,,---,0.00,VWS V14.01,2013-08-20 12:26:00,
2013-08-20 07:27:00,70.2,69.6,30.04,West,264,0.0,0.0,98,0.00,,---,0.00,VWS V14.01,2013-08-20 12:27:00,
2013-08-20 07:28:00,70.2,69.6,30.04,West,264,0.0,0.0,98,0.00,,---,0.00,VWS V14.01,2013-08-20 12:28:00,
2013-08-20 07:30:00,70.3,69.7,30.04,West,264,0.0,0.0,98,0.00,,---,0.00,VWS V14.01,2013-08-20 12:30:00,
2013-08-20 07:32:00,70.4,69.8,30.04,West,265,0.0,0.0,98,0.00,,---,0.00,VWS V14.01,2013-08-20 12:32:00,
2013-08-20 07:33:00,70.5,69.9,30.04,West,264,0.0,0.0,98,0.00,,---,0.00,VWS V14.01,2013-08-20 12:33:00,
2013-08-20 07:35:00,70.6,70.0,30.04,West,265,0.0,0.0,98,0.00,,---,0.00,VWS V14.01,2013-08-20 12:35:00,
2013-08-20 07:37:00,70.7,70.1,30.04,West,264,0.0,0.0,98,0.00,,---,0.00,VWS V14.01,2013-08-20 12:37:00,
2013-08-20 07:38:00,70.7,70.1,30.04,West,265,0.0,0.0,98,0.00,,---,0.00,VWS V14.01,2013-08-20 12:38:00,
2013-08-20 07:40:00,70.8,70.2,30.04,West,265,0.0,0.0,98,0.00,,---,0.00,VWS V14.01,2013-08-20 12:40:00,
2013-08-20 07:42:00,70.9,70.3,30.04,West,265,0.0,0.0,98,0.00,,---,0.00,VWS V14.01,2013-08-20 12:42:00,
2013-08-20 07:43:00,71.0,70.4,30.04,West,265,0.0,0.0,98,0.00,,---,0.00,VWS V14.01,2013-08-20 12:43:00,
2013-08-20 07:44:00,71.0,70.4,30.04,West,264,0.0,0.0,98,0.00,,---,0.00,VWS V14.01,2013-08-20 12:44:00,
2013-08-20 07:46:00,71.1,70.5,30.04,West,264,0.0,0.0,98,0.00,,---,0.00,VWS V14.01,2013-08-20 12:46:00,
2013-08-20 07:47:00,71.2,70.6,30.04,West,264,0.0,0.0,98,0.00,,---,0.00,VWS V14.01,2013-08-20 12:47:00,
2013-08-20 07:48:00,71.2,70.6,30.04,West,264,0.0,0.0,98,0.00,,---,0.00,VWS V14.01,2013-08-20 12:48:00,
2013-08-20 07:49:00,71.2,70.6,30.04,West,264,0.0,0.0,98,0.00,,---,0.00,VWS V14.01,2013-08-20 12:49:00,
2013-08-20 07:51:00,71.4,70.8,30.04,West,264,0.0,0.0,98,0.00,,---,0.00,VWS V14.01,2013-08-20 12:51:00,
2013-08-20 07:52:00,71.5,70.9,30.04,West,264,0.0,0.0,98,0.00,,---,0.00,VWS V14.01,2013-08-20 12:52:00,
2013-08-20 07:53:00,71.5,70.9,30.04,West,265,0.0,0.0,98,0.00,,---,0.00,VWS V14.01,2013-08-20 12:53:00,
2013-08-20 07:54:00,71.6,71.0,30.04,West,264,0.0,0.0,98,0.00,,---,0.00,VWS V14.01,2013-08-20 12:54:00,
2013-08-20 07:56:00,71.7,71.1,30.04,West,264,0.0,0.0,98,0.00,,---,0.00,VWS V14.01,2013-08-20 12:56:00,
2013-08-20 07:57:00,71.8,71.2,30.04,NNW,336,1.0,1.0,98,0.00,,---,0.00,VWS V14.01,2013-08-20 12:57:00,
2013-08-20 07:58:00,71.9,71.3,30.04,NNW,337,0.0,1.0,98,0.00,,---,0.00,VWS V14.01,2013-08-20 12:58:00,
2013-08-20 07:59:00,71.9,71.3,30.04,NNW,336,0.0,1.0,98,0.00,,---,0.00,VWS V14.01,2013-08-20 12:59:00,
2013-08-20 08:01:00,72.1,71.5,30.04,NNW,336,0.0,1.0,98,0.00,,---,0.00,VWS V14.01,2013-08-20 13:01:00,
2013-08-20 08:02:00,72.2,71.6,30.04,NNW,337,0.0,1.0,98,0.00,,---,0.00,VWS V14.01,2013-08-20 13:02:00,
2013-08-20 08:03:00,72.2,71.6,30.04,NNW,336,0.0,1.0,98,0.00,,---,0.00,VWS V14.01,2013-08-20 13:03:00,
2013-08-20 08:04:00,72.2,71.6,30.04,NNW,336,0.0,1.0,98,0.00,,---,0.00,VWS V14.01,2013-08-20 13:04:00,
2013-08-20 08:06:00,72.4,71.8,30.04,NNW,336,1.0,1.0,98,0.00,,---,0.00,VWS V14.01,2013-08-20 13:06:00,
2013-08-20 08:08:00,72.6,72.0,30.04,NNW,337,1.0,1.0,98,0.00,,---,0.00,VWS V14.01,2013-08-20 13:08:00,
2013-08-20 08:09:00,72.6,72.0,30.04,NNW,337,0.0,1.0,98,0.00,,---,0.00,VWS V14.01,2013-08-20 13:09:00,
2013-08-20 08:11:00,72.8,72.2,30.04,NNW,337,0.0,1.0,98,0.00,,---,0.00,VWS V14.01,2013-08-20 13:11:00,
2013-08-20 08:13:00,72.9,72.0,30.04,NNW,336,0.0,1.0,97,0.00,,---,0.00,VWS V14.01,2013-08-20 13:13:00,
2013-08-20 08:14:00,73.0,72.1,30.04,NNW,335,0.0,1.0,97,0.00,,---,0.00,VWS V14.01,2013-08-20 13:14:00,
2013-08-20 08:17:00,73.1,72.2,30.04,WNW,300,0.0,0.0,97,0.00,,---,0.00,VWS V14.01,2013-08-20 13:17:00,
2013-08-20 08:18:00,73.2,72.3,30.04,WNW,300,0.0,0.0,97,0.00,,---,0.00,VWS V14.01,2013-08-20 13:18:00,
2013-08-20 08:19:00,73.2,72.0,30.04,WNW,299,0.0,0.0,96,0.00,,---,0.00,VWS V14.01,2013-08-20 13:19:00,
2013-08-20 08:22:00,73.4,72.2,30.04,WNW,300,0.0,0.0,96,0.00,,---,0.00,VWS V14.01,2013-08-20 13:22:00,
2013-08-20 08:23:00,73.4,72.2,30.05,WNW,300,0.0,0.0,96,0.00,,---,0.00,VWS V14.01,2013-08-20 13:23:00,
2013-08-20 08:24:00,73.5,72.3,30.05,WNW,300,0.0,0.0,96,0.00,,---,0.00,VWS V14.01,2013-08-20 13:24:00,
2013-08-20 08:25:00,73.5,72.3,30.05,WNW,300,0.0,0.0,96,0.00,,---,0.00,VWS V14.01,2013-08-20 13:25:00,
2013-08-20 08:28:00,73.7,72.5,30.05,WNW,299,0.0,0.0,96,0.00,,---,0.00,VWS V14.01,2013-08-20 13:28:00,
2013-08-20 08:29:00,73.8,72.3,30.05,WNW,300,0.0,0.0,95,0.00,,---,0.00,VWS V14.01,2013-08-20 13:29:00,
2013-08-20 08:30:00,73.8,72.3,30.05,WNW,300,0.0,0.0,95,0.00,,---,0.00,VWS V14.01,2013-08-20 13:30:00,
2013-08-20 08:33:00,74.0,72.5,30.05,WNW,300,0.0,0.0,95,0.00,,---,0.00,VWS V14.01,2013-08-20 13:33:00,
2013-08-20 08:34:00,74.1,72.6,30.05,WNW,300,0.0,0.0,95,0.00,,---,0.00,VWS V14.01,2013-08-20 13:34:00,
2013-08-20 08:35:00,74.2,72.7,30.05,WNW,300,0.0,1.0,95,0.00,,---,0.00,VWS V14.01,2013-08-20 13:35:00,
2013-08-20 08:38:00,74.3,72.5,30.05,WNW,296,0.0,1.0,94,0.00,,---,0.00,VWS V14.01,2013-08-20 13:38:00,
2013-08-20 08:39:00,74.4,72.6,30.05,WNW,295,0.0,1.0,94,0.00,,---,0.00,VWS V14.01,2013-08-20 13:39:00,
2013-08-20 08:40:00,74.4,72.6,30.05,WNW,295,0.0,1.0,94,0.00,,---,0.00,VWS V14.01,2013-08-20 13:40:00,
2013-08-20 08:43:00,74.7,72.6,30.05,WNW,295,1.0,1.0,93,0.00,,---,0.00,VWS V14.01,2013-08-20 13:43:00,
2013-08-20 08:44:00,74.8,72.6,30.05,WNW,295,0.0,1.0,93,0.00,,---,0.00,VWS V14.01,2013-08-20 13:44:00,
2013-08-20 08:45:00,74.9,72.7,30.05,WNW,295,0.0,1.0,93,0.00,,---,0.00,VWS V14.01,2013-08-20 13:45:00,
2013-08-20 08:48:00,75.2,73.0,30.05,WNW,295,0.0,1.0,93,0.00,,---,0.00,VWS V14.01,2013-08-20 13:48:00,
2013-08-20 08:49:00,75.2,73.0,30.05,WNW,295,1.0,1.0,93,0.00,,---,0.00,VWS V14.01,2013-08-20 13:49:00,
2013-08-20 08:50:00,75.4,73.2,30.05,WNW,295,0.0,1.0,93,0.00,,---,0.00,VWS V14.01,2013-08-20 13:50:00,
2013-08-20 08:53:00,75.8,73.3,30.05,NNW,333,1.0,2.0,92,0.00,,---,0.00,VWS V14.01,2013-08-20 13:53:00,
2013-08-20 08:54:00,75.9,73.4,30.05,NE,39,2.0,2.0,92,0.00,,---,0.00,VWS V14.01,2013-08-20 13:54:00,
2013-08-20 08:55:00,75.9,73.4,30.05,NE,39,0.0,2.0,92,0.00,,---,0.00,VWS V14.01,2013-08-20 13:55:00,
2013-08-20 08:59:00,76.2,73.1,30.06,NE,37,0.0,2.0,90,0.00,,---,0.00,VWS V14.01,2013-08-20 13:59:00,
2013-08-20 09:00:00,76.3,73.2,30.06,NE,38,0.0,2.0,90,0.00,,---,0.00,VWS V14.01,2013-08-20 14:00:00,
2013-08-20 09:04:00,76.8,73.7,30.06,North,352,1.0,1.0,90,0.00,,---,0.00,VWS V14.01,2013-08-20 14:04:00,
2013-08-20 09:05:00,76.8,73.7,30.05,North,352,1.0,1.0,90,0.00,,---,0.00,VWS V14.01,2013-08-20 14:05:00,
2013-08-20 09:09:00,77.3,73.5,30.06,North,357,0.0,2.0,88,0.00,,---,0.00,VWS V14.01,2013-08-20 14:09:00,
2013-08-20 09:10:00,77.4,73.6,30.06,North,358,0.0,2.0,88,0.00,,---,0.00,VWS V14.01,2013-08-20 14:10:00,
2013-08-20 09:14:00,77.7,73.9,30.06,North,4,1.0,2.0,88,0.00,,---,0.00,VWS V14.01,2013-08-20 14:14:00,
2013-08-20 09:15:00,77.7,73.9,30.06,North,4,0.0,2.0,88,0.00,,---,0.00,VWS V14.01,2013-08-20 14:15:00,
2013-08-20 09:19:00,78.0,73.8,30.06,North,3,0.0,1.0,87,0.00,,---,0.00,VWS V14.01,2013-08-20 14:19:00,
2013-08-20 09:20:00,78.1,73.9,30.06,North,3,0.0,1.0,87,0.00,,---,0.00,VWS V14.01,2013-08-20 14:20:00,
2013-08-20 09:24:00,78.7,74.5,30.06,NE,45,0.0,2.0,87,0.00,,---,0.00,VWS V14.01,2013-08-20 14:24:00,
2013-08-20 09:25:00,78.7,74.5,30.06,NE,44,1.0,2.0,87,0.00,,---,0.00,VWS V14.01,2013-08-20 14:25:00,
2013-08-20 09:29:00,78.9,74.4,30.06,North,7,0.0,2.0,86,0.00,,---,0.00,VWS V14.01,2013-08-20 14:29:00,
2013-08-20 09:30:00,78.8,74.3,30.06,North,8,0.0,2.0,86,0.00,,---,0.00,VWS V14.01,2013-08-20 14:30:00,
2013-08-20 09:35:00,79.1,74.6,30.06,NNW,329,0.0,1.0,86,0.00,,---,0.00,VWS V14.01,2013-08-20 14:35:00,
2013-08-20 09:36:00,79.2,74.7,30.06,NNW,330,0.0,1.0,86,0.00,,---,0.00,VWS V14.01,2013-08-20 14:36:00,
2013-08-20 09:40:00,79.5,74.6,30.06,NE,42,0.0,3.0,85,0.00,,---,0.00,VWS V14.01,2013-08-20 14:40:00,
2013-08-20 09:41:00,79.6,74.3,30.06,NE,35,1.0,3.0,84,0.00,,---,0.00,VWS V14.01,2013-08-20 14:41:00,
2013-08-20 09:45:00,79.7,74.1,30.06,ENE,67,0.0,3.0,83,0.00,,---,0.00,VWS V14.01,2013-08-20 14:45:00,
2013-08-20 09:46:00,79.7,74.4,30.06,ENE,63,0.0,3.0,84,0.00,,---,0.00,VWS V14.01,2013-08-20 14:46:00,
2013-08-20 09:50:00,80.1,74.5,30.06,North,355,1.0,2.0,83,0.00,,---,0.00,VWS V14.01,2013-08-20 14:50:00,
2013-08-20 09:51:00,80.1,74.8,30.06,East,82,3.0,3.0,84,0.00,,---,0.00,VWS V14.01,2013-08-20 14:51:00,
2013-08-20 09:55:00,79.9,74.3,30.06,East,84,0.0,3.0,83,0.00,,---,0.00,VWS V14.01,2013-08-20 14:55:00,
2013-08-20 09:56:00,79.9,73.9,30.06,West,259,1.0,3.0,82,0.00,,---,0.00,VWS V14.01,2013-08-20 14:56:00,
2013-08-20 09:57:00,79.9,73.9,30.06,West,276,0.0,3.0,82,0.00,,---,0.00,VWS V14.01,2013-08-20 14:57:00,
2013-08-20 10:01:00,80.0,74.0,30.06,West,276,0.0,3.0,82,0.00,,---,0.00,VWS V14.01,2013-08-20 15:01:00,
2013-08-20 10:02:00,80.0,74.0,30.06,West,276,0.0,1.0,82,0.00,,---,0.00,VWS V14.01,2013-08-20 15:02:00,
2013-08-20 10:06:00,80.2,74.2,30.06,NW,321,0.0,2.0,82,0.00,,---,0.00,VWS V14.01,2013-08-20 15:06:00,
2013-08-20 10:07:00,80.3,74.3,30.06,WNW,286,2.0,2.0,82,0.00,,---,0.00,VWS V14.01,2013-08-20 15:07:00,
2013-08-20 10:11:00,80.7,74.3,30.06,West,278,1.0,4.0,81,0.00,,---,0.00,VWS V14.01,2013-08-20 15:11:00,
2013-08-20 10:12:00,80.8,74.4,30.06,West,278,1.0,4.0,81,0.00,,---,0.00,VWS V14.01,2013-08-20 15:12:00,
2013-08-20 10:13:00,80.9,74.5,30.06,West,278,0.0,4.0,81,0.00,,---,0.00,VWS V14.01,2013-08-20 15:13:00,
2013-08-20 10:16:00,81.2,74.4,30.06,WNW,292,0.0,0.0,80,0.00,,---,0.00,VWS V14.01,2013-08-20 15:16:00,
2013-08-20 10:17:00,81.3,74.9,30.06,WNW,291,0.0,0.0,81,0.00,,---,0.00,VWS V14.01,2013-08-20 15:17:00,
2013-08-20 10:18:00,81.4,74.6,30.06,WNW,291,0.0,0.0,80,0.00,,---,0.00,VWS V14.01,2013-08-20 15:18:00,
2013-08-20 10:21:00,81.6,74.5,30.06,West,274,0.0,2.0,79,0.00,,---,0.00,VWS V14.01,2013-08-20 15:21:00,
2013-08-20 10:22:00,81.6,74.5,30.06,West,274,0.0,2.0,79,0.00,,---,0.00,VWS V14.01,2013-08-20 15:22:00,
2013-08-20 10:23:00,81.6,74.5,30.06,West,274,0.0,2.0,79,0.00,,---,0.00,VWS V14.01,2013-08-20 15:23:00,
2013-08-20 10:26:00,81.6,73.7,30.06,West,274,0.0,2.0,77,0.00,,---,0.00,VWS V14.01,2013-08-20 15:26:00,
2013-08-20 10:27:00,81.5,73.6,30.06,West,275,0.0,2.0,77,0.00,,---,0.00,VWS V14.01,2013-08-20 15:27:00,
2013-08-20 10:28:00,81.4,73.9,30.06,West,275,0.0,2.0,78,0.00,,---,0.00,VWS V14.01,2013-08-20 15:28:00,
2013-08-20 10:31:00,81.4,73.9,30.06,West,276,0.0,0.0,78,0.00,,---,0.00,VWS V14.01,2013-08-20 15:31:00,
2013-08-20 10:32:00,81.4,73.9,30.06,West,276,0.0,0.0,78,0.00,,---,0.00,VWS V14.01,2013-08-20 15:32:00,
2013-08-20 10:33:00,81.4,73.9,30.06,West,276,0.0,0.0,78,0.00,,---,0.00,VWS V14.01,2013-08-20 15:33:00,
2013-08-20 10:37:00,81.3,73.8,30.07,West,276,0.0,0.0,78,0.00,,---,0.00,VWS V14.01,2013-08-20 15:37:00,
2013-08-20 10:38:00,81.3,73.8,30.06,West,276,0.0,0.0,78,0.00,,---,0.00,VWS V14.01,2013-08-20 15:38:00,
2013-08-20 10:42:00,81.1,73.6,30.06,West,276,0.0,0.0,78,0.00,,---,0.00,VWS V14.01,2013-08-20 15:42:00,
2013-08-20 10:43:00,81.1,73.6,30.06,West,276,0.0,0.0,78,0.00,,---,0.00,VWS V14.01,2013-08-20 15:43:00,
2013-08-20 10:47:00,80.7,73.6,30.06,West,276,0.0,0.0,79,0.00,,---,0.00,VWS V14.01,2013-08-20 15:47:00,
2013-08-20 10:48:00,80.6,73.5,30.06,West,276,0.0,0.0,79,0.00,,---,0.00,VWS V14.01,2013-08-20 15:48:00,
2013-08-20 10:52:00,80.3,73.6,30.06,West,276,0.0,0.0,80,0.00,,---,0.00,VWS V14.01,2013-08-20 15:52:00,
2013-08-20 10:53:00,80.2,73.1,30.06,West,276,0.0,1.0,79,0.00,,---,0.00,VWS V14.01,2013-08-20 15:53:00,
2013-08-20 10:54:00,80.1,73.0,30.06,West,276,0.0,1.0,79,0.00,,---,0.00,VWS V14.01,2013-08-20 15:54:00,
2013-08-20 10:57:00,80.0,72.9,30.06,West,276,0.0,1.0,79,0.00,,---,0.00,VWS V14.01,2013-08-20 15:57:00,
2013-08-20 10:58:00,79.9,72.8,30.06,West,276,0.0,1.0,79,0.00,,---,0.00,VWS V14.01,2013-08-20 15:58:00,
2013-08-20 10:59:00,79.9,72.8,30.06,West,276,0.0,1.0,79,0.00,,---,0.00,VWS V14.01,2013-08-20 15:59:00,
2013-08-20 11:02:00,79.9,73.2,30.06,West,276,0.0,0.0,80,0.00,,---,0.00,VWS V14.01,2013-08-20 16:02:00,
2013-08-20 11:03:00,79.9,72.8,30.06,West,276,0.0,0.0,79,0.00,,---,0.00,VWS V14.01,2013-08-20 16:03:00,
2013-08-20 11:04:00,79.9,72.8,30.06,West,276,0.0,0.0,79,0.00,,---,0.00,VWS V14.01,2013-08-20 16:04:00,
2013-08-20 11:07:00,79.7,73.0,30.06,West,276,0.0,1.0,80,0.00,,---,0.00,VWS V14.01,2013-08-20 16:07:00,
2013-08-20 11:08:00,79.7,72.6,30.06,West,276,0.0,1.0,79,0.00,,---,0.00,VWS V14.01,2013-08-20 16:08:00,
2013-08-20 11:09:00,79.7,73.0,30.07,West,276,0.0,1.0,80,0.00,,---,0.00,VWS V14.01,2013-08-20 16:09:00,
2013-08-20 11:13:00,79.6,72.9,30.06,West,276,0.0,1.0,80,0.00,,---,0.00,VWS V14.01,2013-08-20 16:13:00,
2013-08-20 11:14:00,79.6,73.3,30.06,West,276,0.0,1.0,81,0.00,,---,0.00,VWS V14.01,2013-08-20 16:14:00,
2013-08-20 11:18:00,79.5,72.8,30.07,West,276,0.0,0.0,80,0.00,,---,0.00,VWS V14.01,2013-08-20 16:18:00,
2013-08-20 11:19:00,79.4,72.7,30.07,West,276,0.0,0.0,80,0.00,,---,0.00,VWS V14.01,2013-08-20 16:19:00,
2013-08-20 11:23:00,79.5,72.8,30.07,West,276,0.0,1.0,80,0.00,,---,0.00,VWS V14.01,2013-08-20 16:23:00,
2013-08-20 11:24:00,79.5,72.8,30.07,West,276,0.0,1.0,80,0.00,,---,0.00,VWS V14.01,2013-08-20 16:24:00,
2013-08-20 11:25:00,79.5,72.8,30.07,West,276,0.0,1.0,80,0.00,,---,0.00,VWS V14.01,2013-08-20 16:25:00,
2013-08-20 11:29:00,79.7,73.4,30.06,West,276,0.0,1.0,81,0.00,,---,0.00,VWS V14.01,2013-08-20 16:29:00,
2013-08-20 11:30:00,79.7,73.4,30.06,West,276,0.0,1.0,81,0.00,,---,0.00,VWS V14.01,2013-08-20 16:30:00,
2013-08-20 11:34:00,79.9,73.6,30.06,West,276,0.0,0.0,81,0.00,,---,0.00,VWS V14.01,2013-08-20 16:34:00,
2013-08-20 11:35:00,80.0,73.3,30.06,West,276,1.0,1.0,80,0.00,,---,0.00,VWS V14.01,2013-08-20 16:35:00,
2013-08-20 11:36:00,80.0,73.7,30.06,West,276,0.0,1.0,81,0.00,,---,0.00,VWS V14.01,2013-08-20 16:36:00,
2013-08-20 11:39:00,80.1,73.4,30.06,West,276,0.0,1.0,80,0.00,,---,0.00,VWS V14.01,2013-08-20 16:39:00,
2013-08-20 11:40:00,80.1,73.4,30.06,West,276,0.0,1.0,80,0.00,,---,0.00,VWS V14.01,2013-08-20 16:40:00,
2013-08-20 11:41:00,80.2,73.5,30.06,West,276,0.0,1.0,80,0.00,,---,0.00,VWS V14.01,2013-08-20 16:41:00,
2013-08-20 11:44:00,80.6,74.2,30.06,West,276,0.0,1.0,81,0.00,,---,0.00,VWS V14.01,2013-08-20 16:44:00,
2013-08-20 11:45:00,80.8,74.1,30.06,West,276,0.0,1.0,80,0.00,,---,0.00,VWS V14.01,2013-08-20 16:45:00,
2013-08-20 11:46:00,80.9,74.2,30.07,West,276,0.0,1.0,80,0.00,,---,0.00,VWS V14.01,2013-08-20 16:46:00,
2013-08-20 11:49:00,81.0,73.9,30.07,West,276,0.0,0.0,79,0.00,,---,0.00,VWS V14.01,2013-08-20 16:49:00,
2013-08-20 11:50:00,81.0,73.9,30.06,West,276,0.0,0.0,79,0.00,,---,0.00,VWS V14.01,2013-08-20 16:50:00,
2013-08-20 11:51:00,81.1,74.0,30.06,West,276,0.0,0.0,79,0.00,,---,0.00,VWS V14.01,2013-08-20 16:51:00,
2013-08-20 11:55:00,81.6,74.5,30.06,West,271,0.0,2.0,79,0.00,,---,0.00,VWS V14.01,2013-08-20 16:55:00,
2013-08-20 11:56:00,81.8,74.7,30.06,West,271,0.0,2.0,79,0.00,,---,0.00,VWS V14.01,2013-08-20 16:56:00,
2013-08-20 12:00:00,82.5,74.2,30.06,NNW,342,1.0,3.0,76,0.00,,---,0.00,VWS V14.01,2013-08-20 17:00:00,
2013-08-20 12:01:00,82.5,74.2,30.06,NNW,342,1.0,3.0,76,0.00,,---,0.00,VWS V14.01,2013-08-20 17:01:00,
2013-08-20 12:05:00,83.0,75.1,30.06,NNW,340,0.0,2.0,77,0.00,,---,0.00,VWS V14.01,2013-08-20 17:05:00,
2013-08-20 12:06:00,83.0,74.7,30.06,NNW,340,0.0,2.0,76,0.00,,---,0.00,VWS V14.01,2013-08-20 17:06:00,
2013-08-20 12:10:00,83.5,74.8,30.06,NW,326,0.0,2.0,75,0.00,,---,0.00,VWS V14.01,2013-08-20 17:10:00,
2013-08-20 12:11:00,83.5,74.8,30.06,NW,326,0.0,2.0,75,0.00,,---,0.00,VWS V14.01,2013-08-20 17:11:00,
2013-08-20 12:12:00,83.6,74.8,30.06,NW,326,0.0,2.0,75,0.00,,---,0.00,VWS V14.01,2013-08-20 17:12:00,
2013-08-20 12:16:00,83.5,73.9,30.06,NE,34,0.0,4.0,73,0.00,,---,0.00,VWS V14.01,2013-08-20 17:16:00,
2013-08-20 12:17:00,83.5,74.3,30.06,NE,34,0.0,0.0,74,0.00,,---,0.00,VWS V14.01,2013-08-20 17:17:00,
2013-08-20 12:21:00,84.1,74.9,30.06,NNW,343,0.0,1.0,74,0.00,,---,0.00,VWS V14.01,2013-08-20 17:21:00,
2013-08-20 12:22:00,84.3,75.1,30.06,East,84,3.0,3.0,74,0.00,,---,0.00,VWS V14.01,2013-08-20 17:22:00,
2013-08-20 12:26:00,84.3,73.9,30.06,East,84,2.0,6.0,71,0.00,,---,0.00,VWS V14.01,2013-08-20 17:26:00,
2013-08-20 12:27:00,84.1,74.1,30.06,East,84,2.0,6.0,72,0.00,,---,0.00,VWS V14.01,2013-08-20 17:27:00,
2013-08-20 12:31:00,83.6,74.0,30.06,ENE,73,0.0,6.0,73,0.00,,---,0.00,VWS V14.01,2013-08-20 17:31:00,
2013-08-20 12:32:00,83.6,74.0,30.05,ENE,72,0.0,0.0,73,0.00,,---,0.00,VWS V14.01,2013-08-20 17:32:00,
2013-08-20 12:36:00,83.9,73.9,30.05,NNW,338,1.0,2.0,72,0.00,,---,0.00,VWS V14.01,2013-08-20 17:36:00,
2013-08-20 12:37:00,84.0,73.6,30.05,North,349,2.0,2.0,71,0.00,,---,0.00,VWS V14.01,2013-08-20 17:37:00,
2013-08-20 12:41:00,84.5,74.1,30.05,NNW,332,1.0,2.0,71,0.00,,---,0.00,VWS V14.01,2013-08-20 17:41:00,
2013-08-20 12:42:00,84.6,74.2,30.05,NNW,332,1.0,2.0,71,0.00,,---,0.00,VWS V14.01,2013-08-20 17:42:00,
2013-08-20 12:46:00,85.1,74.2,30.05,NW,326,1.0,1.0,70,0.00,,---,0.00,VWS V14.01,2013-08-20 17:46:00,
2013-08-20 12:47:00,85.3,74.4,30.05,NE,53,2.0,2.0,70,0.00,,---,0.00,VWS V14.01,2013-08-20 17:47:00,
2013-08-20 12:48:00,85.4,73.6,30.05,ENE,76,1.0,2.0,68,0.00,,---,0.00,VWS V14.01,2013-08-20 17:48:00,
2013-08-20 12:51:00,85.7,74.4,30.05,North,9,2.0,2.0,69,0.00,,---,0.00,VWS V14.01,2013-08-20 17:51:00,
2013-08-20 12:52:00,85.7,73.9,30.05,North,4,1.0,2.0,68,0.00,,---,0.00,VWS V14.01,2013-08-20 17:52:00,
2013-08-20 12:53:00,85.8,74.0,30.05,North,4,1.0,2.0,68,0.00,,---,0.00,VWS V14.01,2013-08-20 17:53:00,
2013-08-20 12:57:00,85.7,73.0,30.05,West,276,2.0,3.0,66,0.00,,---,0.00,VWS V14.01,2013-08-20 17:57:00,
2013-08-20 12:58:00,85.8,72.7,30.05,West,260,2.0,3.0,65,0.00,,---,0.00,VWS V14.01,2013-08-20 17:58:00,
2013-08-20 13:02:00,86.2,73.1,30.05,East,84,3.0,3.0,65,0.00,,---,0.00,VWS V14.01,2013-08-20 18:02:00,
2013-08-20 13:03:00,86.2,72.6,30.04,NNW,340,2.0,3.0,64,0.00,,---,0.00,VWS V14.01,2013-08-20 18:03:00,
2013-08-20 13:07:00,86.4,73.2,30.04,West,259,0.0,3.0,65,0.00,,---,0.00,VWS V14.01,2013-08-20 18:07:00,
2013-08-20 13:08:00,86.5,73.3,30.04,West,259,1.0,3.0,65,0.00,,---,0.00,VWS V14.01,2013-08-20 18:08:00,
2013-08-20 13:12:00,86.8,74.1,30.04,NNW,344,0.0,3.0,66,0.00,,---,0.00,VWS V14.01,2013-08-20 18:12:00,
2013-08-20 13:13:00,86.9,74.2,30.04,NNW,346,1.0,3.0,66,0.00,,---,0.00,VWS V14.01,2013-08-20 18:13:00,
2013-08-20 13:18:00,86.8,73.6,30.04,North,354,0.0,2.0,65,0.00,,---,0.00,VWS V14.01,2013-08-20 18:18:00,
2013-08-20 13:23:00,86.7,73.1,30.04,North,356,2.0,4.0,64,0.00,,---,0.00,VWS V14.01,2013-08-20 18:23:00,
2013-08-20 13:28:00,86.7,73.5,30.03,NNW,338,1.0,4.0,65,0.00,,---,0.00,VWS V14.01,2013-08-20 18:28:00,
2013-08-20 13:33:00,86.2,72.1,30.04,North,352,0.0,1.0,63,0.00,,---,0.00,VWS V14.01,2013-08-20 18:33:00,
2013-08-20 13:38:00,86.2,73.5,30.03,NNW,340,0.0,2.0,66,0.00,,---,0.00,VWS V14.01,2013-08-20 18:38:00,
2013-08-20 13:39:00,86.3,73.2,30.03,NNW,340,0.0,2.0,65,0.00,,---,0.00,VWS V14.01,2013-08-20 18:39:00,
2013-08-20 13:43:00,87.0,73.4,30.03,WNW,294,0.0,2.0,64,0.00,,---,0.00,VWS V14.01,2013-08-20 18:43:00,
2013-08-20 13:44:00,87.2,73.6,30.03,North,3,1.0,2.0,64,0.00,,---,0.00,VWS V14.01,2013-08-20 18:44:00,
2013-08-20 13:48:00,87.4,73.3,30.03,North,4,2.0,3.0,63,0.00,,---,0.00,VWS V14.01,2013-08-20 18:48:00,
2013-08-20 13:49:00,87.4,72.3,30.03,NNW,337,0.0,3.0,61,0.00,,---,0.00,VWS V14.01,2013-08-20 18:49:00,
2013-08-20 13:53:00,87.4,71.8,30.03,NNW,337,1.0,4.0,60,0.00,,---,0.00,VWS V14.01,2013-08-20 18:53:00,
2013-08-20 13:54:00,87.4,71.8,30.03,NNW,337,1.0,4.0,60,0.00,,---,0.00,VWS V14.01,2013-08-20 18:54:00,
2013-08-20 13:58:00,87.3,71.7,30.03,North,349,1.0,4.0,60,0.00,,---,0.00,VWS V14.01,2013-08-20 18:58:00,
2013-08-20 13:59:00,87.3,72.2,30.03,NNW,348,1.0,4.0,61,0.00,,---,0.00,VWS V14.01,2013-08-20 18:59:00,
2013-08-20 14:03:00,86.9,71.8,30.02,East,99,1.0,3.0,61,0.00,,---,0.00,VWS V14.01,2013-08-20 19:03:00,
2013-08-20 14:04:00,86.9,71.8,30.02,NW,314,1.0,3.0,61,0.00,,---,0.00,VWS V14.01,2013-08-20 19:04:00,
2013-08-20 14:08:00,87.2,73.1,30.02,NNW,347,1.0,4.0,63,0.00,,---,0.00,VWS V14.01,2013-08-20 19:08:00,
2013-08-20 14:09:00,87.2,73.1,30.02,NNW,347,2.0,4.0,63,0.00,,---,0.00,VWS V14.01,2013-08-20 19:09:00,
2013-08-20 14:10:00,87.2,72.6,30.02,NW,314,0.0,4.0,62,0.00,,---,0.00,VWS V14.01,2013-08-20 19:10:00,
2013-08-20 14:14:00,86.8,72.7,30.02,ENE,72,1.0,4.0,63,0.00,,---,0.00,VWS V14.01,2013-08-20 19:14:00,
2013-08-20 14:15:00,86.6,73.0,30.02,ENE,70,1.0,4.0,64,0.00,,---,0.00,VWS V14.01,2013-08-20 19:15:00,
2013-08-20 14:19:00,85.9,73.2,30.02,NE,37,0.0,1.0,66,0.00,,---,0.00,VWS V14.01,2013-08-20 19:19:00,
2013-08-20 14:20:00,85.7,73.0,30.02,NE,48,0.0,1.0,66,0.00,,---,0.00,VWS V14.01,2013-08-20 19:20:00,
2013-08-20 14:24:00,85.2,72.6,30.02,NNW,330,0.0,3.0,66,0.00,,---,0.00,VWS V14.01,2013-08-20 19:24:00,
2013-08-20 14:25:00,85.1,72.5,30.02,NNW,330,1.0,3.0,66,0.00,,---,0.00,VWS V14.01,2013-08-20 19:25:00,
2013-08-20 14:29:00,85.4,73.6,30.02,ENE,74,2.0,3.0,68,0.00,,---,0.00,VWS V14.01,2013-08-20 19:29:00,
2013-08-20 14:30:00,85.5,73.7,30.01,East,96,1.0,3.0,68,0.00,,---,0.00,VWS V14.01,2013-08-20 19:30:00,
2013-08-20 14:34:00,86.2,73.5,30.01,ENE,67,0.0,3.0,66,0.00,,---,0.00,VWS V14.01,2013-08-20 19:34:00,
2013-08-20 14:35:00,86.3,73.6,30.01,ENE,67,0.0,3.0,66,0.00,,---,0.00,VWS V14.01,2013-08-20 19:35:00,
2013-08-20 14:39:00,87.2,72.6,30.01,North,10,2.0,3.0,62,0.00,,---,0.00,VWS V14.01,2013-08-20 19:39:00,
2013-08-20 14:40:00,87.2,72.1,30.01,East,86,1.0,3.0,61,0.00,,---,0.00,VWS V14.01,2013-08-20 19:40:00,
2013-08-20 14:44:00,87.0,71.9,30.01,NNW,346,1.0,3.0,61,0.00,,---,0.00,VWS V14.01,2013-08-20 19:44:00,
2013-08-20 14:45:00,87.0,71.9,30.01,NNW,346,1.0,3.0,61,0.00,,---,0.00,VWS V14.01,2013-08-20 19:45:00,
2013-08-20 14:49:00,87.1,72.5,30.00,NNW,330,1.0,4.0,62,0.00,,---,0.00,VWS V14.01,2013-08-20 19:49:00,
2013-08-20 14:50:00,87.1,72.5,30.00,NNW,330,1.0,4.0,62,0.00,,---,0.00,VWS V14.01,2013-08-20 19:50:00,
2013-08-20 14:55:00,87.7,74.0,30.00,WNW,286,1.0,4.0,64,0.00,,---,0.00,VWS V14.01,2013-08-20 19:55:00,
2013-08-20 15:00:00,88.4,73.2,30.00,North,349,2.0,4.0,61,0.00,,---,0.00,VWS V14.01,2013-08-20 20:00:00,
2013-08-20 15:01:00,88.4,72.8,30.00,North,349,1.0,4.0,60,0.00,,---,0.00,VWS V14.01,2013-08-20 20:01:00,
2013-08-20 15:05:00,88.3,72.2,30.00,West,259,2.0,2.0,59,0.00,,---,0.00,VWS V14.01,2013-08-20 20:05:00,
2013-08-20 15:06:00,88.4,72.3,30.00,West,259,1.0,2.0,59,0.00,,---,0.00,VWS V14.01,2013-08-20 20:06:00,
2013-08-20 15:10:00,88.5,72.3,30.00,West,271,1.0,2.0,59,0.00,,---,0.00,VWS V14.01,2013-08-20 20:10:00,
2013-08-20 15:11:00,88.6,72.4,30.00,West,271,1.0,2.0,59,0.00,,---,0.00,VWS V14.01,2013-08-20 20:11:00,
2013-08-20 15:15:00,88.9,71.2,30.00,WNW,288,1.0,2.0,56,0.00,,---,0.00,VWS V14.01,2013-08-20 20:15:00,
2013-08-20 15:16:00,88.9,71.2,30.00,WNW,288,1.0,2.0,56,0.00,,---,0.00,VWS V14.01,2013-08-20 20:16:00,
2013-08-20 15:20:00,88.6,71.4,30.00,West,276,1.0,1.0,57,0.00,,---,0.00,VWS V14.01,2013-08-20 20:20:00,
2013-08-20 15:21:00,88.6,71.4,30.00,West,276,0.0,1.0,57,0.00,,---,0.00,VWS V14.01,2013-08-20 20:21:00,
2013-08-20 15:25:00,88.1,72.0,30.00,West,276,0.0,1.0,59,0.00,,---,0.00,VWS V14.01,2013-08-20 20:25:00,
2013-08-20 15:26:00,88.1,72.0,30.00,West,276,0.0,1.0,59,0.00,,---,0.00,VWS V14.01,2013-08-20 20:26:00,
2013-08-20 15:30:00,88.0,71.9,29.99,SW,224,0.0,4.0,59,0.00,,---,0.00,VWS V14.01,2013-08-20 20:30:00,
2013-08-20 15:31:00,88.0,72.4,29.99,SW,224,0.0,4.0,60,0.00,,---,0.00,VWS V14.01,2013-08-20 20:31:00,
2013-08-20 15:32:00,88.1,73.0,29.99,ESE,112,4.0,6.0,61,0.00,,---,0.00,VWS V14.01,2013-08-20 20:32:00,
2013-08-20 15:35:00,88.0,71.9,29.99,NNW,332,1.0,6.0,59,0.00,,---,0.00,VWS V14.01,2013-08-20 20:35:00,
2013-08-20 15:36:00,88.1,72.5,29.99,NNW,333,0.0,6.0,60,0.00,,---,0.00,VWS V14.01,2013-08-20 20:36:00,
2013-08-20 15:37:00,88.1,72.5,29.99,NNW,330,0.0,6.0,60,0.00,,---,0.00,VWS V14.01,2013-08-20 20:37:00,
2013-08-20 15:40:00,88.3,72.2,29.99,NNW,342,0.0,6.0,59,0.00,,---,0.00,VWS V14.01,2013-08-20 20:40:00,
2013-08-20 15:41:00,88.2,72.1,29.99,NNW,340,0.0,6.0,59,0.00,,---,0.00,VWS V14.01,2013-08-20 20:41:00,
2013-08-20 15:42:00,88.3,72.7,29.99,WSW,250,1.0,6.0,60,0.00,,---,0.00,VWS V14.01,2013-08-20 20:42:00,
2013-08-20 15:45:00,88.0,72.4,29.99,SSE,163,1.0,6.0,60,0.00,,---,0.00,VWS V14.01,2013-08-20 20:45:00,
2013-08-20 15:46:00,87.9,72.8,29.99,SSE,163,1.0,1.0,61,0.00,,---,0.00,VWS V14.01,2013-08-20 20:46:00,
2013-08-20 15:47:00,87.8,72.7,29.99,South,174,1.0,3.0,61,0.00,,---,0.00,VWS V14.01,2013-08-20 20:47:00,
2013-08-20 15:51:00,87.2,72.1,29.99,East,86,2.0,6.0,61,0.00,,---,0.00,VWS V14.01,2013-08-20 20:51:00,
2013-08-20 15:52:00,87.0,71.9,29.99,East,86,4.0,6.0,61,0.00,,---,0.00,VWS V14.01,2013-08-20 20:52:00,
2013-08-20 15:56:00,86.7,71.7,29.99,NW,314,2.0,6.0,61,0.00,,---,0.00,VWS V14.01,2013-08-20 20:56:00,
2013-08-20 15:57:00,86.7,71.2,29.99,NW,316,2.0,6.0,60,0.00,,---,0.00,VWS V14.01,2013-08-20 20:57:00,
2013-08-20 15:58:00,86.8,71.8,29.99,NW,316,1.0,6.0,61,0.00,,---,0.00,VWS V14.01,2013-08-20 20:58:00,
2013-08-20 16:01:00,87.3,71.7,29.99,NNW,337,1.0,6.0,60,0.00,,---,0.00,VWS V14.01,2013-08-20 21:01:00,
2013-08-20 16:02:00,87.4,71.8,29.99,NNW,337,1.0,1.0,60,0.00,,---,0.00,VWS V14.01,2013-08-20 21:02:00,
2013-08-20 16:03:00,87.5,71.4,29.99,NNW,335,1.0,2.0,59,0.00,,---,0.00,VWS V14.01,2013-08-20 21:03:00,
2013-08-20 16:06:00,87.9,72.3,29.99,NNW,335,1.0,2.0,60,0.00,,---,0.00,VWS V14.01,2013-08-20 21:06:00,
2013-08-20 16:07:00,87.9,72.3,29.99,NNW,335,0.0,2.0,60,0.00,,---,0.00,VWS V14.01,2013-08-20 21:07:00,
2013-08-20 16:08:00,88.1,72.5,29.99,NNW,335,0.0,2.0,60,0.00,,---,0.00,VWS V14.01,2013-08-20 21:08:00,
2013-08-20 16:11:00,89.0,72.3,29.99,SW,228,0.0,3.0,58,0.00,,---,0.00,VWS V14.01,2013-08-20 21:11:00,
2013-08-20 16:12:00,89.1,72.4,29.99,SW,228,0.0,3.0,58,0.00,,---,0.00,VWS V14.01,2013-08-20 21:12:00,
2013-08-20 16:13:00,89.4,72.2,29.99,WSW,240,0.0,3.0,57,0.00,,---,0.00,VWS V14.01,2013-08-20 21:13:00,
2013-08-20 16:16:00,90.5,73.2,29.99,North,352,2.0,3.0,57,0.00,,---,0.00,VWS V14.01,2013-08-20 21:16:00,
2013-08-20 16:17:00,90.4,71.5,29.99,North,354,2.0,3.0,54,0.00,,---,0.00,VWS V14.01,2013-08-20 21:17:00,
2013-08-20 16:18:00,90.4,72.1,29.99,North,357,1.0,3.0,55,0.00,,---,0.00,VWS V14.01,2013-08-20 21:18:00,
2013-08-20 16:22:00,90.0,71.1,29.99,NW,314,0.0,3.0,54,0.00,,---,0.00,VWS V14.01,2013-08-20 21:22:00,
2013-08-20 16:23:00,90.1,70.7,29.99,NW,314,0.0,3.0,53,0.00,,---,0.00,VWS V14.01,2013-08-20 21:23:00,
2013-08-20 16:27:00,90.6,72.2,29.99,North,356,0.0,3.0,55,0.00,,---,0.00,VWS V14.01,2013-08-20 21:27:00,
2013-08-20 16:28:00,90.5,71.1,29.99,NNW,347,2.0,3.0,53,0.00,,---,0.00,VWS V14.01,2013-08-20 21:28:00,
2013-08-20 16:32:00,90.1,72.3,29.99,East,89,1.0,3.0,56,0.00,,---,0.00,VWS V14.01,2013-08-20 21:32:00,
2013-08-20 16:33:00,89.9,71.6,29.99,NNE,15,1.0,3.0,55,0.00,,---,0.00,VWS V14.01,2013-08-20 21:33:00,
2013-08-20 16:37:00,89.6,71.3,29.99,NNE,14,1.0,3.0,55,0.00,,---,0.00,VWS V14.01,2013-08-20 21:37:00,
2013-08-20 16:38:00,89.5,71.2,29.99,NNE,14,0.0,3.0,55,0.00,,---,0.00,VWS V14.01,2013-08-20 21:38:00,
2013-08-20 16:42:00,89.6,70.2,29.99,West,259,0.0,3.0,53,0.00,,---,0.00,VWS V14.01,2013-08-20 21:42:00,
2013-08-20 16:43:00,89.7,71.4,29.99,West,259,1.0,3.0,55,0.00,,---,0.00,VWS V14.01,2013-08-20 21:43:00,
2013-08-20 16:44:00,89.7,71.9,29.99,East,98,1.0,3.0,56,0.00,,---,0.00,VWS V14.01,2013-08-20 21:44:00,
2013-08-20 16:47:00,90.1,71.8,29.99,ESE,107,2.0,2.0,55,0.00,,---,0.00,VWS V14.01,2013-08-20 21:47:00,
2013-08-20 16:48:00,90.2,71.9,29.99,ESE,107,1.0,2.0,55,0.00,,---,0.00,VWS V14.01,2013-08-20 21:48:00,
2013-08-20 16:49:00,90.2,71.3,29.99,East,83,0.0,3.0,54,0.00,,---,0.00,VWS V14.01,2013-08-20 21:49:00,
2013-08-20 16:52:00,90.2,72.4,29.99,ENE,70,1.0,3.0,56,0.00,,---,0.00,VWS V14.01,2013-08-20 21:52:00,
2013-08-20 16:53:00,90.2,72.4,29.99,ENE,70,1.0,3.0,56,0.00,,---,0.00,VWS V14.01,2013-08-20 21:53:00,
2013-08-20 16:54:00,90.1,71.8,29.99,ENE,71,1.0,3.0,55,0.00,,---,0.00,VWS V14.01,2013-08-20 21:54:00,
2013-08-20 16:58:00,90.1,71.2,29.99,ENE,68,0.0,3.0,54,0.00,,---,0.00,VWS V14.01,2013-08-20 21:58:00,
2013-08-20 16:59:00,90.2,71.3,29.99,ENE,68,0.0,3.0,54,0.00,,---,0.00,VWS V14.01,2013-08-20 21:59:00,
2013-08-20 17:03:00,90.2,72.4,29.99,North,8,0.0,2.0,56,0.00,,---,0.00,VWS V14.01,2013-08-20 22:03:00,
2013-08-20 17:04:00,90.1,72.3,29.99,North,354,1.0,2.0,56,0.00,,---,0.00,VWS V14.01,2013-08-20 22:04:00,
2013-08-20 17:08:00,88.8,72.6,29.99,North,353,0.0,2.0,59,0.00,,---,0.00,VWS V14.01,2013-08-20 22:08:00,
2013-08-20 17:09:00,88.7,72.5,29.99,North,353,0.0,2.0,59,0.00,,---,0.00,VWS V14.01,2013-08-20 22:09:00,
2013-08-20 17:13:00,87.8,71.2,29.99,NNW,337,1.0,2.0,58,0.00,,---,0.00,VWS V14.01,2013-08-20 22:13:00,
2013-08-20 17:14:00,87.8,71.2,29.99,NNW,337,1.0,2.0,58,0.00,,---,0.00,VWS V14.01,2013-08-20 22:14:00,
2013-08-20 17:19:00,87.0,70.9,29.99,NE,55,2.0,2.0,59,0.00,,---,0.00,VWS V14.01,2013-08-20 22:19:00,
2013-08-20 17:24:00,86.5,71.9,29.99,NE,35,0.0,2.0,62,0.00,,---,0.00,VWS V14.01,2013-08-20 22:24:00,
2013-08-20 17:29:00,86.2,72.1,29.99,East,83,0.0,3.0,63,0.00,,---,0.00,VWS V14.01,2013-08-20 22:29:00,
2013-08-20 17:30:00,86.1,72.0,29.99,East,82,1.0,3.0,63,0.00,,---,0.00,VWS V14.01,2013-08-20 22:30:00,
2013-08-20 17:34:00,85.9,71.8,29.99,ENE,65,1.0,1.0,63,0.00,,---,0.00,VWS V14.01,2013-08-20 22:34:00,
2013-08-20 17:35:00,85.8,71.3,29.99,ENE,65,0.0,1.0,62,0.00,,---,0.00,VWS V14.01,2013-08-20 22:35:00,
2013-08-20 17:39:00,85.6,71.6,29.99,ENE,65,0.0,1.0,63,0.00,,---,0.00,VWS V14.01,2013-08-20 22:39:00,
2013-08-20 17:40:00,85.6,72.0,29.99,ENE,65,0.0,1.0,64,0.00,,---,0.00,VWS V14.01,2013-08-20 22:40:00,
2013-08-20 17:44:00,85.5,72.4,29.99,ENE,65,0.0,1.0,65,0.00,,---,0.00,VWS V14.01,2013-08-20 22:44:00,
2013-08-20 17:45:00,85.4,71.4,29.99,ENE,65,0.0,1.0,63,0.00,,---,0.00,VWS V14.01,2013-08-20 22:45:00,
2013-08-20 17:49:00,85.1,71.1,29.99,ENE,65,0.0,0.0,63,0.00,,---,0.00,VWS V14.01,2013-08-20 22:49:00,
2013-08-20 17:50:00,85.1,71.6,29.99,ENE,65,0.0,0.0,64,0.00,,---,0.00,VWS V14.01,2013-08-20 22:50:00,
2013-08-20 17:54:00,84.9,72.3,29.99,ENE,65,0.0,0.0,66,0.00,,---,0.00,VWS V14.01,2013-08-20 22:54:00,
2013-08-20 17:55:00,84.9,72.3,29.99,ENE,65,0.0,0.0,66,0.00,,---,0.00,VWS V14.01,2013-08-20 22:55:00,
2013-08-20 17:56:00,84.8,72.2,29.99,ENE,65,0.0,0.0,66,0.00,,---,0.00,VWS V14.01,2013-08-20 22:56:00,
2013-08-20 18:00:00,84.8,72.2,29.99,ENE,65,0.0,0.0,66,0.00,,---,0.00,VWS V14.01,2013-08-20 23:00:00,
2013-08-20 18:01:00,84.9,72.3,29.99,ENE,65,0.0,0.0,66,0.00,,---,0.00,VWS V14.01,2013-08-20 23:01:00,
2013-08-20 18:05:00,85.1,72.0,29.99,North,357,1.0,2.0,65,0.00,,---,0.00,VWS V14.01,2013-08-20 23:05:00,
2013-08-20 18:06:00,85.3,71.8,29.99,North,357,0.0,2.0,64,0.00,,---,0.00,VWS V14.01,2013-08-20 23:06:00,
2013-08-20 18:10:00,85.8,72.2,29.99,NNW,346,1.0,2.0,64,0.00,,---,0.00,VWS V14.01,2013-08-20 23:10:00,
2013-08-20 18:11:00,85.8,72.2,29.99,NNW,346,1.0,2.0,64,0.00,,---,0.00,VWS V14.01,2013-08-20 23:11:00,
2013-08-20 18:15:00,85.9,71.8,29.99,North,349,0.0,2.0,63,0.00,,---,0.00,VWS V14.01,2013-08-20 23:15:00,
2013-08-20 18:16:00,85.9,72.3,29.99,North,349,0.0,2.0,64,0.00,,---,0.00,VWS V14.01,2013-08-20 23:16:00,
2013-08-20 18:20:00,85.8,71.8,29.99,North,349,0.0,1.0,63,0.00,,---,0.00,VWS V14.01,2013-08-20 23:20:00,
2013-08-20 18:21:00,85.8,72.2,29.99,North,349,0.0,1.0,64,0.00,,---,0.00,VWS V14.01,2013-08-20 23:21:00,
2013-08-20 18:25:00,85.7,72.6,29.99,North,349,0.0,1.0,65,0.00,,---,0.00,VWS V14.01,2013-08-20 23:25:00,
2013-08-20 18:26:00,85.6,72.5,29.99,North,349,0.0,1.0,65,0.00,,---,0.00,VWS V14.01,2013-08-20 23:26:00,
2013-08-20 18:30:00,85.5,72.4,29.99,NNW,331,0.0,1.0,65,0.00,,---,0.00,VWS V14.01,2013-08-20 23:30:00,
2013-08-20 18:31:00,85.4,72.3,29.99,NNW,330,0.0,0.0,65,0.00,,---,0.00,VWS V14.01,2013-08-20 23:31:00,
2013-08-20 18:32:00,85.4,72.3,29.99,NNW,330,0.0,0.0,65,0.00,,---,0.00,VWS V14.01,2013-08-20 23:32:00,
2013-08-20 18:35:00,85.4,72.3,29.99,NNW,330,0.0,0.0,65,0.00,,---,0.00,VWS V14.01,2013-08-20 23:35:00,
2013-08-20 18:36:00,85.4,72.3,29.99,NNW,332,0.0,0.0,65,0.00,,---,0.00,VWS V14.01,2013-08-20 23:36:00,
2013-08-20 18:37:00,85.4,72.3,29.99,NNW,330,0.0,0.0,65,0.00,,---,0.00,VWS V14.01,2013-08-20 23:37:00,
2013-08-20 18:40:00,85.5,72.8,29.99,NNW,330,0.0,0.0,66,0.00,,---,0.00,VWS V14.01,2013-08-20 23:40:00,
2013-08-20 18:41:00,85.4,72.8,29.99,NNW,330,0.0,0.0,66,0.00,,---,0.00,VWS V14.01,2013-08-20 23:41:00,
2013-08-20 18:42:00,85.5,72.8,29.99,NNW,331,0.0,0.0,66,0.00,,---,0.00,VWS V14.01,2013-08-20 23:42:00,
2013-08-20 18:45:00,85.4,72.8,29.99,NNW,330,0.0,0.0,66,0.00,,---,0.00,VWS V14.01,2013-08-20 23:45:00,
2013-08-20 18:46:00,85.3,72.7,29.99,NNW,331,0.0,0.0,66,0.00,,---,0.00,VWS V14.01,2013-08-20 23:46:00,
2013-08-20 18:47:00,85.3,72.7,29.99,NNW,330,0.0,0.0,66,0.00,,---,0.00,VWS V14.01,2013-08-20 23:47:00,
2013-08-20 18:50:00,85.2,72.6,29.99,NNW,330,0.0,0.0,66,0.00,,---,0.00,VWS V14.01,2013-08-20 23:50:00,
2013-08-20 18:51:00,85.2,72.6,29.99,NNW,330,0.0,0.0,66,0.00,,---,0.00,VWS V14.01,2013-08-20 23:51:00,
2013-08-20 18:52:00,85.1,72.5,29.99,NNW,330,0.0,0.0,66,0.00,,---,0.00,VWS V14.01,2013-08-20 23:52:00,
2013-08-20 18:55:00,85.0,72.8,29.99,NNW,330,0.0,0.0,67,0.00,,---,0.00,VWS V14.01,2013-08-20 23:55:00,
2013-08-20 18:57:00,84.8,72.6,29.99,NNW,330,0.0,0.0,67,0.00,,---,0.00,VWS V14.01,2013-08-20 23:57:00,
2013-08-20 19:01:00,84.5,72.8,29.99,NNW,330,0.0,1.0,68,0.00,,---,0.00,VWS V14.01,2013-08-21 00:01:00,
2013-08-20 19:02:00,84.3,72.6,29.99,NNW,330,1.0,1.0,68,0.00,,---,0.00,VWS V14.01,2013-08-21 00:02:00,
2013-08-20 19:03:00,84.3,72.6,29.99,NNW,330,1.0,1.0,68,0.00,,---,0.00,VWS V14.01,2013-08-21 00:03:00,
2013-08-20 19:06:00,83.9,72.7,29.99,NNW,330,0.0,1.0,69,0.00,,---,0.00,VWS V14.01,2013-08-21 00:06:00,
2013-08-20 19:07:00,83.8,73.0,29.99,NNW,330,0.0,1.0,70,0.00,,---,0.00,VWS V14.01,2013-08-21 00:07:00,
2013-08-20 19:08:00,83.7,72.9,29.99,NNW,330,0.0,1.0,70,0.00,,---,0.00,VWS V14.01,2013-08-21 00:08:00,
2013-08-20 19:11:00,83.4,73.0,29.99,NNW,330,0.0,1.0,71,0.00,,---,0.00,VWS V14.01,2013-08-21 00:11:00,
2013-08-20 19:12:00,83.3,72.9,30.00,NNW,330,0.0,1.0,71,0.00,,---,0.00,VWS V14.01,2013-08-21 00:12:00,
2013-08-20 19:13:00,83.3,72.9,30.00,NNW,330,0.0,1.0,71,0.00,,---,0.00,VWS V14.01,2013-08-21 00:13:00,
2013-08-20 19:16:00,82.9,72.5,30.00,NNW,330,0.0,0.0,71,0.00,,---,0.00,VWS V14.01,2013-08-21 00:16:00,
2013-08-20 19:18:00,82.8,72.4,30.00,NNW,330,0.0,0.0,71,0.00,,---,0.00,VWS V14.01,2013-08-21 00:18:00,
2013-08-20 19:21:00,82.6,72.7,30.00,NNW,331,0.0,0.0,72,0.00,,---,0.00,VWS V14.01,2013-08-21 00:21:00,
2013-08-20 19:23:00,82.4,72.5,30.00,NNW,330,0.0,0.0,72,0.00,,---,0.00,VWS V14.01,2013-08-21 00:23:00,
2013-08-20 19:26:00,82.2,72.7,30.00,NNW,330,0.0,0.0,73,0.00,,---,0.00,VWS V14.01,2013-08-21 00:26:00,
2013-08-20 19:28:00,82.1,73.0,30.00,NNW,330,0.0,0.0,74,0.00,,---,0.00,VWS V14.01,2013-08-21 00:28:00,
2013-08-20 19:31:00,81.8,72.7,30.00,NNW,330,0.0,0.0,74,0.00,,---,0.00,VWS V14.01,2013-08-21 00:31:00,
2013-08-20 19:33:00,81.6,72.5,30.00,NNW,330,0.0,0.0,74,0.00,,---,0.00,VWS V14.01,2013-08-21 00:33:00,
2013-08-20 19:36:00,81.4,72.7,30.00,NNW,330,0.0,0.0,75,0.00,,---,0.00,VWS V14.01,2013-08-21 00:36:00,
2013-08-20 19:38:00,81.3,72.6,30.00,NNW,330,0.0,0.0,75,0.00,,---,0.00,VWS V14.01,2013-08-21 00:38:00,
2013-08-20 19:41:00,81.1,72.4,30.00,NNW,331,0.0,0.0,75,0.00,,---,0.00,VWS V14.01,2013-08-21 00:41:00,
2013-08-20 19:43:00,81.0,72.3,30.00,NNW,330,0.0,0.0,75,0.00,,---,0.00,VWS V14.01,2013-08-21 00:43:00,
2013-08-20 19:47:00,80.8,72.5,30.00,NNW,330,0.0,0.0,76,0.00,,---,0.00,VWS V14.01,2013-08-21 00:47:00,
2013-08-20 19:48:00,80.7,72.4,30.00,NNW,330,0.0,0.0,76,0.00,,---,0.00,VWS V14.01,2013-08-21 00:48:00,
2013-08-20 19:52:00,80.6,72.3,30.00,NNW,330,0.0,0.0,76,0.00,,---,0.00,VWS V14.01,2013-08-21 00:52:00,
2013-08-20 19:53:00,80.5,72.2,30.00,NNW,330,0.0,0.0,76,0.00,,---,0.00,VWS V14.01,2013-08-21 00:53:00,
2013-08-20 19:57:00,80.4,72.5,30.00,NNW,330,0.0,0.0,77,0.00,,---,0.00,VWS V14.01,2013-08-21 00:57:00,
2013-08-20 19:58:00,80.3,72.4,30.00,NNW,330,0.0,0.0,77,0.00,,---,0.00,VWS V14.01,2013-08-21 00:58:00,
2013-08-20 20:02:00,80.2,72.3,30.00,NNW,330,0.0,0.0,77,0.00,,---,0.00,VWS V14.01,2013-08-21 01:02:00,
2013-08-20 20:03:00,80.1,72.2,30.00,NNW,330,0.0,0.0,77,0.00,,---,0.00,VWS V14.01,2013-08-21 01:03:00,
2013-08-20 20:07:00,80.0,72.5,30.00,NNW,330,0.0,0.0,78,0.00,,---,0.00,VWS V14.01,2013-08-21 01:07:00,
2013-08-20 20:08:00,79.9,72.4,30.00,NNW,330,0.0,0.0,78,0.00,,---,0.00,VWS V14.01,2013-08-21 01:08:00,
2013-08-20 20:09:00,80.0,72.5,30.00,NNW,330,0.0,0.0,78,0.00,,---,0.00,VWS V14.01,2013-08-21 01:09:00,
2013-08-20 20:12:00,79.8,72.3,30.00,NNW,330,0.0,0.0,78,0.00,,---,0.00,VWS V14.01,2013-08-21 01:12:00,
2013-08-20 20:13:00,79.7,72.2,30.00,NNW,330,0.0,0.0,78,0.00,,---,0.00,VWS V14.01,2013-08-21 01:13:00,
2013-08-20 20:14:00,79.7,72.2,30.00,NNW,330,0.0,0.0,78,0.00,,---,0.00,VWS V14.01,2013-08-21 01:14:00,
2013-08-20 20:17:00,79.6,72.1,30.00,NNW,330,0.0,0.0,78,0.00,,---,0.00,VWS V14.01,2013-08-21 01:17:00,
2013-08-20 20:18:00,79.6,72.1,30.00,NNW,330,0.0,0.0,78,0.00,,---,0.00,VWS V14.01,2013-08-21 01:18:00,
2013-08-20 20:19:00,79.6,72.1,30.00,NNW,330,0.0,0.0,78,0.00,,---,0.00,VWS V14.01,2013-08-21 01:19:00,
2013-08-20 20:23:00,79.5,72.4,30.01,NNW,330,0.0,0.0,79,0.00,,---,0.00,VWS V14.01,2013-08-21 01:23:00,
2013-08-20 20:24:00,79.4,72.3,30.01,NNW,330,0.0,0.0,79,0.00,,---,0.00,VWS V14.01,2013-08-21 01:24:00,
2013-08-20 20:28:00,79.3,72.2,30.00,NNW,330,0.0,0.0,79,0.00,,---,0.00,VWS V14.01,2013-08-21 01:28:00,
2013-08-20 20:29:00,79.3,72.2,30.00,NNW,330,0.0,0.0,79,0.00,,---,0.00,VWS V14.01,2013-08-21 01:29:00,
2013-08-20 20:30:00,79.2,72.1,30.01,NNW,330,0.0,0.0,79,0.00,,---,0.00,VWS V14.01,2013-08-21 01:30:00,
2013-08-20 20:33:00,79.1,72.4,30.01,NNW,330,0.0,0.0,80,0.00,,---,0.00,VWS V14.01,2013-08-21 01:33:00,
2013-08-20 20:34:00,79.1,72.4,30.01,NNW,330,0.0,0.0,80,0.00,,---,0.00,VWS V14.01,2013-08-21 01:34:00,
2013-08-20 20:35:00,79.1,72.4,30.01,NNW,330,0.0,0.0,80,0.00,,---,0.00,VWS V14.01,2013-08-21 01:35:00,
2013-08-20 20:38:00,78.9,72.6,30.01,NNW,330,0.0,0.0,81,0.00,,---,0.00,VWS V14.01,2013-08-21 01:38:00,
2013-08-20 20:39:00,78.9,72.6,30.01,NNW,330,0.0,0.0,81,0.00,,---,0.00,VWS V14.01,2013-08-21 01:39:00,
2013-08-20 20:40:00,78.9,72.6,30.01,NNW,330,0.0,0.0,81,0.00,,---,0.00,VWS V14.01,2013-08-21 01:40:00,
2013-08-20 20:43:00,78.7,72.4,30.01,NNW,330,0.0,0.0,81,0.00,,---,0.00,VWS V14.01,2013-08-21 01:43:00,
2013-08-20 20:44:00,78.7,72.4,30.02,NNW,330,0.0,0.0,81,0.00,,---,0.00,VWS V14.01,2013-08-21 01:44:00,
2013-08-20 20:45:00,78.7,72.4,30.02,NNW,330,0.0,0.0,81,0.00,,---,0.00,VWS V14.01,2013-08-21 01:45:00,
2013-08-20 20:49:00,78.5,72.2,30.02,NNW,330,0.0,0.0,81,0.00,,---,0.00,VWS V14.01,2013-08-21 01:49:00,
2013-08-20 20:50:00,78.5,72.2,30.02,NNW,330,0.0,0.0,81,0.00,,---,0.00,VWS V14.01,2013-08-21 01:50:00,
2013-08-20 20:54:00,78.4,72.4,30.02,NNW,331,0.0,0.0,82,0.00,,---,0.00,VWS V14.01,2013-08-21 01:54:00,
2013-08-20 20:55:00,78.4,72.4,30.02,NNW,330,0.0,0.0,82,0.00,,---,0.00,VWS V14.01,2013-08-21 01:55:00,
2013-08-20 20:59:00,78.3,72.4,30.02,NNW,330,0.0,0.0,82,0.00,,---,0.00,VWS V14.01,2013-08-21 01:59:00,
2013-08-20 21:00:00,78.3,72.4,30.02,NNW,330,0.0,0.0,82,0.00,,---,0.00,VWS V14.01,2013-08-21 02:00:00,
2013-08-20 21:04:00,78.2,72.3,30.02,NNW,330,0.0,0.0,82,0.00,,---,0.00,VWS V14.01,2013-08-21 02:04:00,
2013-08-20 21:05:00,78.2,72.3,30.03,NNW,330,0.0,0.0,82,0.00,,---,0.00,VWS V14.01,2013-08-21 02:05:00,
2013-08-20 21:09:00,78.1,72.2,30.03,NNW,330,0.0,0.0,82,0.00,,---,0.00,VWS V14.01,2013-08-21 02:09:00,
2013-08-20 21:10:00,78.1,72.2,30.03,NNW,330,0.0,0.0,82,0.00,,---,0.00,VWS V14.01,2013-08-21 02:10:00,
2013-08-20 21:11:00,78.1,72.2,30.03,NNW,330,0.0,0.0,82,0.00,,---,0.00,VWS V14.01,2013-08-21 02:11:00,
2013-08-20 21:14:00,78.1,72.5,30.03,NNW,330,0.0,0.0,83,0.00,,---,0.00,VWS V14.01,2013-08-21 02:14:00,
2013-08-20 21:15:00,78.1,72.5,30.03,NNW,330,0.0,0.0,83,0.00,,---,0.00,VWS V14.01,2013-08-21 02:15:00,
2013-08-20 21:16:00,78.1,72.5,30.03,NNW,330,0.0,0.0,83,0.00,,---,0.00,VWS V14.01,2013-08-21 02:16:00,
2013-08-20 21:20:00,78.0,72.4,30.03,NNW,330,0.0,0.0,83,0.00,,---,0.00,VWS V14.01,2013-08-21 02:20:00,
2013-08-20 21:21:00,78.0,72.4,30.03,NNW,330,0.0,0.0,83,0.00,,---,0.00,VWS V14.01,2013-08-21 02:21:00,
2013-08-20 21:25:00,77.8,72.2,30.03,NNW,330,0.0,0.0,83,0.00,,---,0.00,VWS V14.01,2013-08-21 02:25:00,
2013-08-20 21:26:00,77.8,71.9,30.03,NNW,330,0.0,0.0,82,0.00,,---,0.00,VWS V14.01,2013-08-21 02:26:00,
2013-08-20 21:30:00,77.8,72.6,30.03,NNW,330,0.0,1.0,84,0.00,,---,0.00,VWS V14.01,2013-08-21 02:30:00,
2013-08-20 21:31:00,77.8,72.6,30.03,NNW,330,0.0,1.0,84,0.00,,---,0.00,VWS V14.01,2013-08-21 02:31:00,
2013-08-20 21:35:00,77.8,72.6,30.03,NNW,330,0.0,0.0,84,0.00,,---,0.00,VWS V14.01,2013-08-21 02:35:00,
2013-08-20 21:36:00,77.9,72.7,30.03,NNW,330,0.0,0.0,84,0.00,,---,0.00,VWS V14.01,2013-08-21 02:36:00,
2013-08-20 21:37:00,77.9,72.7,30.03,NNW,330,0.0,0.0,84,0.00,,---,0.00,VWS V14.01,2013-08-21 02:37:00,
2013-08-20 21:40:00,77.9,72.3,30.03,NNW,330,0.0,1.0,83,0.00,,---,0.00,VWS V14.01,2013-08-21 02:40:00,
2013-08-20 21:41:00,78.0,72.4,30.03,NNW,330,0.0,1.0,83,0.00,,---,0.00,VWS V14.01,2013-08-21 02:41:00,
2013-08-20 21:42:00,78.0,72.4,30.03,NNW,331,0.0,1.0,83,0.00,,---,0.00,VWS V14.01,2013-08-21 02:42:00,
2013-08-20 21:45:00,78.0,72.4,30.03,NNW,330,0.0,1.0,83,0.00,,---,0.00,VWS V14.01,2013-08-21 02:45:00,
2013-08-20 21:46:00,78.0,72.4,30.03,NNW,330,0.0,0.0,83,0.00,,---,0.00,VWS V14.01,2013-08-21 02:46:00,
2013-08-20 21:47:00,78.0,72.4,30.03,NNW,330,0.0,0.0,83,0.00,,---,0.00,VWS V14.01,2013-08-21 02:47:00,
2013-08-20 21:50:00,78.0,72.4,30.03,NNW,330,0.0,0.0,83,0.00,,---,0.00,VWS V14.01,2013-08-21 02:50:00,
2013-08-20 21:51:00,78.0,72.4,30.03,NNW,330,0.0,0.0,83,0.00,,---,0.00,VWS V14.01,2013-08-21 02:51:00,
2013-08-20 21:52:00,78.0,72.4,30.03,NNW,331,0.0,0.0,83,0.00,,---,0.00,VWS V14.01,2013-08-21 02:52:00,
2013-08-20 21:55:00,77.9,72.3,30.03,NNW,330,0.0,0.0,83,0.00,,---,0.00,VWS V14.01,2013-08-21 02:55:00,
2013-08-20 21:56:00,77.9,72.3,30.03,NNW,330,0.0,0.0,83,0.00,,---,0.00,VWS V14.01,2013-08-21 02:56:00,
2013-08-20 21:57:00,77.9,72.3,30.03,NNW,330,0.0,0.0,83,0.00,,---,0.00,VWS V14.01,2013-08-21 02:57:00,
2013-08-20 22:01:00,77.7,72.5,30.03,NNW,330,0.0,0.0,84,0.00,,---,0.00,VWS V14.01,2013-08-21 03:01:00,
2013-08-20 22:02:00,77.7,72.5,30.03,NNW,330,0.0,0.0,84,0.00,,---,0.00,VWS V14.01,2013-08-21 03:02:00,
2013-08-20 22:03:00,77.7,72.5,30.03,NNW,330,0.0,0.0,84,0.00,,---,0.00,VWS V14.01,2013-08-21 03:03:00,
2013-08-20 22:06:00,77.6,72.4,30.03,NNW,330,0.0,0.0,84,0.00,,---,0.00,VWS V14.01,2013-08-21 03:06:00,
2013-08-20 22:07:00,77.5,72.3,30.03,NNW,330,0.0,0.0,84,0.00,,---,0.00,VWS V14.01,2013-08-21 03:07:00,
2013-08-20 22:08:00,77.5,72.3,30.03,NNW,330,0.0,0.0,84,0.00,,---,0.00,VWS V14.01,2013-08-21 03:08:00,
2013-08-20 22:11:00,77.4,72.2,30.03,NNW,330,0.0,0.0,84,0.00,,---,0.00,VWS V14.01,2013-08-21 03:11:00,
2013-08-20 22:13:00,77.3,72.1,30.03,NNW,330,0.0,0.0,84,0.00,,---,0.00,VWS V14.01,2013-08-21 03:13:00,
2013-08-20 22:16:00,77.2,72.3,30.03,NNW,330,0.0,0.0,85,0.00,,---,0.00,VWS V14.01,2013-08-21 03:16:00,
2013-08-20 22:17:00,77.2,72.3,30.03,NNW,330,0.0,0.0,85,0.00,,---,0.00,VWS V14.01,2013-08-21 03:17:00,
2013-08-20 22:18:00,77.2,72.3,30.03,NNW,330,0.0,0.0,85,0.00,,---,0.00,VWS V14.01,2013-08-21 03:18:00,
2013-08-20 22:22:00,77.0,72.2,30.03,NNW,330,0.0,0.0,85,0.00,,---,0.00,VWS V14.01,2013-08-21 03:22:00,
2013-08-20 22:23:00,77.0,72.2,30.03,NNW,330,0.0,0.0,85,0.00,,---,0.00,VWS V14.01,2013-08-21 03:23:00,
2013-08-20 22:27:00,76.8,72.3,30.03,NNW,330,0.0,0.0,86,0.00,,---,0.00,VWS V14.01,2013-08-21 03:27:00,
2013-08-20 22:28:00,76.8,72.3,30.04,NNW,330,0.0,0.0,86,0.00,,---,0.00,VWS V14.01,2013-08-21 03:28:00,
2013-08-20 22:32:00,76.6,72.1,30.04,NNW,330,0.0,0.0,86,0.00,,---,0.00,VWS V14.01,2013-08-21 03:32:00,
2013-08-20 22:33:00,76.5,72.0,30.04,NNW,330,0.0,0.0,86,0.00,,---,0.00,VWS V14.01,2013-08-21 03:33:00,
2013-08-20 22:34:00,76.5,72.0,30.04,NNW,330,0.0,0.0,86,0.00,,---,0.00,VWS V14.01,2013-08-21 03:34:00,
2013-08-20 22:37:00,76.4,72.2,30.04,NNW,330,0.0,0.0,87,0.00,,---,0.00,VWS V14.01,2013-08-21 03:37:00,
2013-08-20 22:38:00,76.4,72.2,30.04,NNW,330,0.0,0.0,87,0.00,,---,0.00,VWS V14.01,2013-08-21 03:38:00,
2013-08-20 22:39:00,76.4,72.2,30.04,NNW,331,0.0,0.0,87,0.00,,---,0.00,VWS V14.01,2013-08-21 03:39:00,
2013-08-20 22:42:00,76.4,72.2,30.04,NNW,330,0.0,0.0,87,0.00,,---,0.00,VWS V14.01,2013-08-21 03:42:00,
2013-08-20 22:43:00,76.4,72.2,30.04,NNW,330,0.0,0.0,87,0.00,,---,0.00,VWS V14.01,2013-08-21 03:43:00,
2013-08-20 22:44:00,76.3,72.2,30.04,NNW,330,0.0,0.0,87,0.00,,---,0.00,VWS V14.01,2013-08-21 03:44:00,
2013-08-20 22:47:00,76.2,72.1,30.04,NNW,330,0.0,0.0,87,0.00,,---,0.00,VWS V14.01,2013-08-21 03:47:00,
2013-08-20 22:48:00,76.2,72.1,30.04,NNW,330,0.0,0.0,87,0.00,,---,0.00,VWS V14.01,2013-08-21 03:48:00,
2013-08-20 22:49:00,76.2,72.1,30.04,NNW,330,0.0,0.0,87,0.00,,---,0.00,VWS V14.01,2013-08-21 03:49:00,
2013-08-20 22:50:00,76.2,72.1,30.04,NNW,330,0.0,0.0,87,0.00,,---,0.00,VWS V14.01,2013-08-21 03:50:00,
2013-08-20 22:52:00,76.1,72.3,30.04,NNW,330,0.0,0.0,88,0.00,,---,0.00,VWS V14.01,2013-08-21 03:52:00,
2013-08-20 22:53:00,76.1,72.3,30.04,NNW,330,0.0,0.0,88,0.00,,---,0.00,VWS V14.01,2013-08-21 03:53:00,
2013-08-20 22:54:00,76.1,72.3,30.04,NNW,330,0.0,0.0,88,0.00,,---,0.00,VWS V14.01,2013-08-21 03:54:00,
2013-08-20 22:55:00,76.1,72.3,30.04,NNW,330,0.0,0.0,88,0.00,,---,0.00,VWS V14.01,2013-08-21 03:55:00,
2013-08-20 22:57:00,76.0,72.2,30.04,NNW,330,0.0,0.0,88,0.00,,---,0.00,VWS V14.01,2013-08-21 03:57:00,
2013-08-20 22:59:00,76.0,72.2,30.04,NNW,330,0.0,0.0,88,0.00,,---,0.00,VWS V14.01,2013-08-21 03:59:00,
2013-08-20 23:00:00,75.9,72.1,30.04,NNW,330,0.0,0.0,88,0.00,,---,0.00,VWS V14.01,2013-08-21 04:00:00,
2013-08-20 23:01:00,75.9,72.1,30.04,NNW,330,0.0,0.0,88,0.00,,---,0.00,VWS V14.01,2013-08-21 04:01:00,
2013-08-20 23:06:00,76.0,72.2,30.04,NNW,330,0.0,0.0,88,0.00,,---,0.00,VWS V14.01,2013-08-21 04:06:00,
2013-08-20 23:11:00,76.0,72.2,30.04,NNW,330,0.0,0.0,88,0.00,,---,0.00,VWS V14.01,2013-08-21 04:11:00,
2013-08-20 23:12:00,76.0,72.2,30.04,NNW,330,0.0,0.0,88,0.00,,---,0.00,VWS V14.01,2013-08-21 04:12:00,
2013-08-20 23:16:00,76.0,72.2,30.04,NNW,330,0.0,0.0,88,0.00,,---,0.00,VWS V14.01,2013-08-21 04:16:00,
2013-08-20 23:17:00,76.0,72.2,30.04,NNW,330,0.0,0.0,88,0.00,,---,0.00,VWS V14.01,2013-08-21 04:17:00,
2013-08-20 23:21:00,75.9,72.1,30.04,NNW,330,0.0,0.0,88,0.00,,---,0.00,VWS V14.01,2013-08-21 04:21:00,
2013-08-20 23:22:00,75.9,72.1,30.04,NNW,330,0.0,0.0,88,0.00,,---,0.00,VWS V14.01,2013-08-21 04:22:00,
2013-08-20 23:26:00,75.8,72.3,30.04,NNW,330,0.0,0.0,89,0.00,,---,0.00,VWS V14.01,2013-08-21 04:26:00,
2013-08-20 23:27:00,75.8,72.3,30.04,NNW,330,0.0,0.0,89,0.00,,---,0.00,VWS V14.01,2013-08-21 04:27:00,
2013-08-20 23:28:00,75.8,72.3,30.04,NNW,330,0.0,0.0,89,0.00,,---,0.00,VWS V14.01,2013-08-21 04:28:00,
2013-08-20 23:31:00,75.7,72.2,30.04,NNW,330,0.0,0.0,89,0.00,,---,0.00,VWS V14.01,2013-08-21 04:31:00,
2013-08-20 23:32:00,75.7,72.2,30.04,NNW,330,0.0,0.0,89,0.00,,---,0.00,VWS V14.01,2013-08-21 04:32:00,
2013-08-20 23:33:00,75.7,72.2,30.04,NNW,330,0.0,0.0,89,0.00,,---,0.00,VWS V14.01,2013-08-21 04:33:00,
2013-08-20 23:36:00,75.6,72.1,30.04,NNW,330,0.0,0.0,89,0.00,,---,0.00,VWS V14.01,2013-08-21 04:36:00,
2013-08-20 23:37:00,75.6,72.1,30.04,NNW,330,0.0,0.0,89,0.00,,---,0.00,VWS V14.01,2013-08-21 04:37:00,
2013-08-20 23:38:00,75.6,72.1,30.04,NNW,330,0.0,0.0,89,0.00,,---,0.00,VWS V14.01,2013-08-21 04:38:00,
2013-08-20 23:41:00,75.5,72.4,30.04,NNW,330,0.0,0.0,90,0.00,,---,0.00,VWS V14.01,2013-08-21 04:41:00,
2013-08-20 23:42:00,75.6,72.5,30.04,NNW,330,0.0,0.0,90,0.00,,---,0.00,VWS V14.01,2013-08-21 04:42:00,
2013-08-20 23:43:00,75.6,72.5,30.04,NNW,330,0.0,0.0,90,0.00,,---,0.00,VWS V14.01,2013-08-21 04:43:00,
2013-08-20 23:46:00,75.5,72.4,30.04,NNW,330,0.0,0.0,90,0.00,,---,0.00,VWS V14.01,2013-08-21 04:46:00,
2013-08-20 23:47:00,75.5,72.4,30.04,NNW,330,0.0,0.0,90,0.00,,---,0.00,VWS V14.01,2013-08-21 04:47:00,
2013-08-20 23:48:00,75.5,72.0,30.04,NNW,330,0.0,0.0,89,0.00,,---,0.00,VWS V14.01,2013-08-21 04:48:00,
2013-08-20 23:49:00,75.5,72.0,30.04,NNW,331,0.0,0.0,89,0.00,,---,0.00,VWS V14.01,2013-08-21 04:49:00,
2013-08-20 23:51:00,75.5,72.4,30.04,NNW,330,0.0,0.0,90,0.00,,---,0.00,VWS V14.01,2013-08-21 04:51:00,
2013-08-20 23:52:00,75.4,72.3,30.04,NNW,330,0.0,0.0,90,0.00,,---,0.00,VWS V14.01,2013-08-21 04:52:00,
2013-08-20 23:53:00,75.5,72.4,30.04,NNW,330,0.0,0.0,90,0.00,,---,0.00,VWS V14.01,2013-08-21 04:53:00,
2013-08-20 23:54:00,75.4,72.3,30.04,NNW,330,0.0,0.0,90,0.00,,---,0.00,VWS V14.01,2013-08-21 04:54:00,
2013-08-20 23:56:00,75.4,72.3,30.04,NNW,330,0.0,0.0,90,0.00,,---,0.00,VWS V14.01,2013-08-21 04:56:00,
2013-08-20 23:58:00,75.5,72.4,30.04,NNW,330,0.0,0.0,90,0.00,,---,0.00,VWS V14.01,2013-08-21 04:58:00,
2013-08-20 23:59:00,75.5,72.4,30.04,NNW,330,0.0,0.0,90,0.00,,---,0.00,VWS V14.01,2013-08-21 04:59:00,